Time,TemperatureF,DewpointF,PressureIn,WindDirection,WindDirectionDegrees,WindSpeedMPH,WindSpeedGustMPH,Humidity,HourlyPrecipIn,Conditions,Clouds,dailyrainin,SoftwareType,DateUTC
2013-03-24 00:00:00,31.8,20.6,29.09,East,90,8.1,8.1,63,0.00,CLR,,0.00,WeatherDisplay:10.37,2013-03-24 05:00:00,
2013-03-24 00:01:00,31.8,20.6,29.09,East,90,6.9,6.9,63,0.00,CLR,,0.00,WeatherDisplay:10.37,2013-03-24 05:01:00,
2013-03-24 00:04:00,31.6,21.2,29.09,NE,45,7.1,7.1,65,0.00,CLR,,0.00,WeatherDisplay:10.37,2013-03-24 05:04:00,
2013-03-24 00:05:00,31.6,21.6,29.09,ENE,65,6.0,0.0,66,0.00,CLR,,0.00,WeatherDisplay:10.37,2013-03-24 05:05:00,
2013-03-24 00:06:00,31.5,21.4,29.09,ENE,68,7.8,7.8,66,0.00,CLR,,0.00,WeatherDisplay:10.37,2013-03-24 05:06:00,
2013-03-24 00:07:00,31.5,21.8,29.09,NE,45,6.9,6.9,67,0.00,CLR,,0.00,WeatherDisplay:10.37,2013-03-24 05:07:00,
2013-03-24 00:10:00,31.3,21.6,29.09,NE,53,7.0,0.0,67,0.00,CLR,,0.00,WeatherDisplay:10.37,2013-03-24 05:10:00,
2013-03-24 00:14:00,31.3,21.9,29.09,ENE,68,6.9,6.9,68,0.00,CLR,,0.00,WeatherDisplay:10.37,2013-03-24 05:14:00,
2013-03-24 00:15:00,31.3,21.9,29.09,NE,51,7.0,0.0,68,0.00,CLR,,0.00,WeatherDisplay:10.37,2013-03-24 05:15:00,
2013-03-24 00:19:00,31.1,22.5,29.09,ENE,68,10.4,10.4,70,0.00,CLR,,0.00,WeatherDisplay:10.37,2013-03-24 05:19:00,
2013-03-24 00:20:00,31.1,22.5,29.09,ENE,68,12.3,12.3,70,0.00,CLR,,0.00,WeatherDisplay:10.37,2013-03-24 05:20:00,
2013-03-24 00:21:00,31.1,22.5,29.09,ENE,68,10.4,10.4,70,0.00,CLR,,0.00,WeatherDisplay:10.37,2013-03-24 05:21:00,
2013-03-24 00:25:00,30.9,22.6,29.09,ENE,68,9.2,9.2,71,0.00,CLR,,0.00,WeatherDisplay:10.37,2013-03-24 05:25:00,
2013-03-24 00:27:00,30.7,22.4,29.09,NNE,22,8.5,8.5,71,0.00,CLR,,0.00,WeatherDisplay:10.37,2013-03-24 05:27:00,
2013-03-24 00:28:00,30.7,22.4,29.09,NNE,22,8.1,8.1,71,0.00,CLR,,0.00,WeatherDisplay:10.37,2013-03-24 05:28:00,
2013-03-24 00:30:00,30.7,22.4,29.09,NE,53,8.0,0.0,71,0.00,CLR,,0.00,WeatherDisplay:10.37,2013-03-24 05:30:00,
2013-03-24 00:32:00,30.7,22.4,29.09,NE,45,10.4,10.4,71,0.00,CLR,,0.00,WeatherDisplay:10.37,2013-03-24 05:32:00,
2013-03-24 00:33:00,30.7,22.4,29.09,NE,45,8.1,8.1,71,0.00,CLR,,0.00,WeatherDisplay:10.37,2013-03-24 05:33:00,
2013-03-24 00:35:00,30.6,22.6,29.09,NE,54,7.0,0.0,72,0.00,CLR,,0.00,WeatherDisplay:10.37,2013-03-24 05:35:00,
2013-03-24 00:38:00,30.6,22.6,29.09,ENE,68,9.2,9.2,72,0.00,CLR,,0.00,WeatherDisplay:10.37,2013-03-24 05:38:00,
2013-03-24 00:41:00,30.6,22.6,29.09,ENE,68,9.2,9.2,72,0.00,CLR,,0.00,WeatherDisplay:10.37,2013-03-24 05:41:00,
2013-03-24 00:43:00,30.6,22.6,29.09,NNE,22,6.9,6.9,72,0.00,CLR,,0.00,WeatherDisplay:10.37,2013-03-24 05:43:00,
2013-03-24 00:44:00,30.6,22.6,29.09,NNE,22,6.9,6.9,72,0.00,CLR,,0.00,WeatherDisplay:10.37,2013-03-24 05:44:00,
2013-03-24 00:46:00,30.4,22.4,29.09,ENE,68,8.1,8.1,72,0.00,CLR,,0.00,WeatherDisplay:10.37,2013-03-24 05:46:00,
2013-03-24 00:47:00,30.4,22.4,29.09,ENE,68,8.1,8.1,72,0.00,CLR,,0.00,WeatherDisplay:10.37,2013-03-24 05:47:00,
2013-03-24 00:48:00,30.4,22.4,29.09,ENE,68,5.8,5.8,72,0.00,CLR,,0.00,WeatherDisplay:10.37,2013-03-24 05:48:00,
2013-03-24 00:49:00,30.4,22.4,29.09,ENE,68,5.8,5.8,72,0.00,CLR,,0.00,WeatherDisplay:10.37,2013-03-24 05:49:00,
2013-03-24 00:51:00,30.4,22.4,29.09,East,90,9.2,9.2,72,0.00,CLR,,0.00,WeatherDisplay:10.37,2013-03-24 05:51:00,
2013-03-24 00:54:00,30.4,22.8,29.09,ENE,68,10.4,10.4,73,0.00,CLR,,0.00,WeatherDisplay:10.37,2013-03-24 05:54:00,
2013-03-24 00:55:00,30.4,22.8,29.09,NE,45,10.4,10.4,73,0.00,CLR,,0.00,WeatherDisplay:10.37,2013-03-24 05:55:00,
2013-03-24 00:56:00,30.4,22.8,29.06,NNE,22,6.9,6.9,73,0.00,CLR,,0.00,WeatherDisplay:10.37,2013-03-24 05:56:00,
2013-03-24 00:59:00,30.4,22.8,29.06,ENE,68,8.1,8.1,73,0.00,CLR,,0.00,WeatherDisplay:10.37,2013-03-24 05:59:00,
2013-03-24 01:00:00,30.4,22.8,29.06,NNE,22,8.1,8.1,73,0.00,CLR,,0.00,WeatherDisplay:10.37,2013-03-24 06:00:00,
2013-03-24 01:02:00,30.2,22.9,29.06,ENE,68,6.9,6.9,74,0.00,CLR,,0.00,WeatherDisplay:10.37,2013-03-24 06:02:00,
2013-03-24 01:05:00,30.2,22.6,29.06,ENE,61,7.0,0.0,73,0.00,CLR,,0.00,WeatherDisplay:10.37,2013-03-24 06:05:00,
2013-03-24 01:06:00,30.2,22.9,29.06,East,90,9.2,9.2,74,0.00,CLR,,0.00,WeatherDisplay:10.37,2013-03-24 06:06:00,
2013-03-24 01:07:00,30.2,22.9,29.06,ENE,68,9.2,9.2,74,0.00,CLR,,0.00,WeatherDisplay:10.37,2013-03-24 06:07:00,
2013-03-24 01:08:00,30.2,22.9,29.06,East,90,5.8,5.8,74,0.00,CLR,,0.00,WeatherDisplay:10.37,2013-03-24 06:08:00,
2013-03-24 01:10:00,30.2,22.9,29.06,ENE,63,5.0,0.0,74,0.00,CLR,,0.00,WeatherDisplay:10.37,2013-03-24 06:10:00,
2013-03-24 01:12:00,30.2,22.9,29.06,ENE,68,8.1,8.1,74,0.00,CLR,,0.00,WeatherDisplay:10.37,2013-03-24 06:12:00,
2013-03-24 01:16:00,30.2,22.6,29.06,ENE,68,5.8,5.8,73,0.00,CLR,,0.00,WeatherDisplay:10.37,2013-03-24 06:16:00,
2013-03-24 01:17:00,30.2,22.6,29.06,ENE,68,6.0,6.2,73,0.00,CLR,,0.00,WeatherDisplay:10.37,2013-03-24 06:17:00,
2013-03-24 01:18:00,30.2,22.6,29.06,North,0,9.2,9.2,73,0.00,CLR,,0.00,WeatherDisplay:10.37,2013-03-24 06:18:00,
2013-03-24 01:22:00,30.2,22.6,29.06,NE,45,8.1,8.1,73,0.00,CLR,,0.00,WeatherDisplay:10.37,2013-03-24 06:22:00,
2013-03-24 01:23:00,30.2,22.9,29.06,ENE,68,10.4,10.4,74,0.00,CLR,,0.00,WeatherDisplay:10.37,2013-03-24 06:23:00,
2013-03-24 01:25:00,30.2,22.9,29.06,ENE,60,5.0,0.0,74,0.00,CLR,,0.00,WeatherDisplay:10.37,2013-03-24 06:25:00,
2013-03-24 01:28:00,30.2,22.9,29.03,East,90,9.2,9.2,74,0.00,CLR,,0.00,WeatherDisplay:10.37,2013-03-24 06:28:00,
2013-03-24 01:29:00,30.2,22.6,29.03,NE,45,9.2,9.2,73,0.00,CLR,,0.00,WeatherDisplay:10.37,2013-03-24 06:29:00,
2013-03-24 01:34:00,30.2,22.9,29.03,ENE,68,6.9,6.9,74,0.00,CLR,,0.00,WeatherDisplay:10.37,2013-03-24 06:34:00,
2013-03-24 01:35:00,30.2,22.9,29.03,East,90,5.8,5.8,74,0.00,CLR,,0.00,WeatherDisplay:10.37,2013-03-24 06:35:00,
2013-03-24 01:40:00,30.2,22.9,29.03,ENE,68,6.2,6.2,74,0.00,CLR,,0.00,WeatherDisplay:10.37,2013-03-24 06:40:00,
2013-03-24 01:41:00,30.2,22.9,29.03,NE,45,10.4,10.4,74,0.00,CLR,,0.00,WeatherDisplay:10.37,2013-03-24 06:41:00,
2013-03-24 01:45:00,30.2,22.9,29.03,ENE,68,5.0,0.0,74,0.00,CLR,,0.00,WeatherDisplay:10.37,2013-03-24 06:45:00,
2013-03-24 01:46:00,30.2,22.9,29.03,ENE,68,8.1,8.1,74,0.00,CLR,,0.00,WeatherDisplay:10.37,2013-03-24 06:46:00,
2013-03-24 01:47:00,30.2,22.9,29.03,ENE,68,8.1,8.1,74,0.00,CLR,,0.00,WeatherDisplay:10.37,2013-03-24 06:47:00,
2013-03-24 01:51:00,30.2,22.9,29.03,NNE,22,5.8,5.8,74,0.00,CLR,,0.00,WeatherDisplay:10.37,2013-03-24 06:51:00,
2013-03-24 01:54:00,30.2,22.9,29.03,ENE,68,5.8,5.8,74,0.00,CLR,,0.00,WeatherDisplay:10.37,2013-03-24 06:54:00,
2013-03-24 01:55:00,30.2,22.9,29.03,ENE,68,5.8,5.8,74,0.00,CLR,,0.00,WeatherDisplay:10.37,2013-03-24 06:55:00,
2013-03-24 01:57:00,30.2,22.9,29.06,ENE,68,5.8,5.8,74,0.00,CLR,,0.00,WeatherDisplay:10.37,2013-03-24 06:57:00,
2013-03-24 01:59:00,30.0,22.7,29.06,ENE,68,6.9,6.9,74,0.00,CLR,,0.00,WeatherDisplay:10.37,2013-03-24 06:59:00,
2013-03-24 02:00:00,30.0,22.7,29.06,ENE,68,5.8,5.8,74,0.00,CLR,,0.00,WeatherDisplay:10.37,2013-03-24 07:00:00,
2013-03-24 02:03:00,30.2,22.9,29.06,ENE,68,5.8,5.8,74,0.00,CLR,,0.00,WeatherDisplay:10.37,2013-03-24 07:03:00,
2013-03-24 02:04:00,30.2,22.9,29.06,ENE,68,7.4,7.4,74,0.00,CLR,,0.00,WeatherDisplay:10.37,2013-03-24 07:04:00,
2013-03-24 02:05:00,30.2,22.9,29.06,East,90,5.8,5.8,74,0.00,CLR,,0.00,WeatherDisplay:10.37,2013-03-24 07:05:00,
2013-03-24 02:08:00,30.0,22.7,29.06,ENE,68,5.8,5.8,74,0.00,CLR,,0.00,WeatherDisplay:10.37,2013-03-24 07:08:00,
2013-03-24 02:09:00,30.2,22.9,29.06,East,90,5.8,5.8,74,0.00,CLR,,0.00,WeatherDisplay:10.37,2013-03-24 07:09:00,
2013-03-24 02:10:00,30.2,22.9,29.06,East,80,5.0,0.0,74,0.00,CLR,,0.00,WeatherDisplay:10.37,2013-03-24 07:10:00,
2013-03-24 02:13:00,30.2,22.9,29.03,East,90,5.8,5.8,74,0.00,CLR,,0.00,WeatherDisplay:10.37,2013-03-24 07:13:00,
2013-03-24 02:14:00,30.2,22.9,29.03,ENE,68,3.5,3.5,74,0.00,CLR,,0.00,WeatherDisplay:10.37,2013-03-24 07:14:00,
2013-03-24 02:15:00,30.2,22.9,29.03,ENE,78,3.0,0.0,74,0.00,CLR,,0.00,WeatherDisplay:10.37,2013-03-24 07:15:00,
2013-03-24 02:20:00,30.0,22.7,29.03,ENE,74,5.0,0.0,74,0.00,CLR,,0.00,WeatherDisplay:10.37,2013-03-24 07:20:00,
2013-03-24 02:21:00,30.0,22.7,29.03,ENE,68,4.9,4.9,74,0.00,CLR,,0.00,WeatherDisplay:10.37,2013-03-24 07:21:00,
2013-03-24 02:25:00,30.0,22.7,29.03,ESE,112,6.7,6.7,74,0.00,CLR,,0.00,WeatherDisplay:10.37,2013-03-24 07:25:00,
2013-03-24 02:27:00,30.0,22.4,29.03,ENE,68,5.8,5.8,73,0.00,CLR,,0.00,WeatherDisplay:10.37,2013-03-24 07:27:00,
2013-03-24 02:30:00,30.2,22.6,29.03,NE,45,6.4,6.4,73,0.00,CLR,,0.00,WeatherDisplay:10.37,2013-03-24 07:30:00,
2013-03-24 02:31:00,30.2,22.6,29.03,ENE,68,6.9,6.9,73,0.00,CLR,,0.00,WeatherDisplay:10.37,2013-03-24 07:31:00,
2013-03-24 02:32:00,30.2,22.6,29.03,ENE,68,5.8,5.8,73,0.00,CLR,,0.00,WeatherDisplay:10.37,2013-03-24 07:32:00,
2013-03-24 02:36:00,30.2,22.6,29.03,East,90,5.8,5.8,73,0.00,CLR,,0.00,WeatherDisplay:10.37,2013-03-24 07:36:00,
2013-03-24 02:37:00,30.2,22.6,29.03,ENE,68,4.9,5.6,73,0.00,CLR,,0.00,WeatherDisplay:10.37,2013-03-24 07:37:00,
2013-03-24 02:38:00,30.2,22.6,29.03,ENE,68,8.1,8.1,73,0.00,CLR,,0.00,WeatherDisplay:10.37,2013-03-24 07:38:00,
2013-03-24 02:43:00,30.2,22.6,29.03,ENE,68,7.4,7.4,73,0.00,CLR,,0.00,WeatherDisplay:10.37,2013-03-24 07:43:00,
2013-03-24 02:44:00,30.2,22.6,29.03,East,90,6.9,6.9,73,0.00,CLR,,0.00,WeatherDisplay:10.37,2013-03-24 07:44:00,
2013-03-24 02:48:00,30.2,22.6,29.03,ENE,68,5.8,5.8,73,0.00,CLR,,0.00,WeatherDisplay:10.37,2013-03-24 07:48:00,
2013-03-24 02:49:00,30.2,22.6,29.03,ENE,68,5.8,5.8,73,0.00,CLR,,0.00,WeatherDisplay:10.37,2013-03-24 07:49:00,
2013-03-24 02:51:00,30.2,22.6,29.03,East,90,5.8,5.8,73,0.00,CLR,,0.00,WeatherDisplay:10.37,2013-03-24 07:51:00,
2013-03-24 02:53:00,30.2,22.6,29.03,East,90,6.0,6.0,73,0.00,CLR,,0.00,WeatherDisplay:10.37,2013-03-24 07:53:00,
2013-03-24 02:54:00,30.0,22.4,29.03,NE,45,5.8,5.8,73,0.00,CLR,,0.00,WeatherDisplay:10.37,2013-03-24 07:54:00,
2013-03-24 02:57:00,30.0,22.4,29.03,ENE,68,8.1,8.1,73,0.00,CLR,,0.00,WeatherDisplay:10.37,2013-03-24 07:57:00,
2013-03-24 02:58:00,30.0,22.4,29.03,ENE,68,9.2,9.2,73,0.00,CLR,,0.00,WeatherDisplay:10.37,2013-03-24 07:58:00,
2013-03-24 02:59:00,30.0,22.4,29.03,ENE,68,9.2,9.2,73,0.00,CLR,,0.00,WeatherDisplay:10.37,2013-03-24 07:59:00,
2013-03-24 03:00:00,30.0,22.4,29.03,ENE,58,6.0,0.0,73,0.00,CLR,,0.00,WeatherDisplay:10.37,2013-03-24 08:00:00,
2013-03-24 03:04:00,30.0,22.4,29.03,ENE,68,8.1,8.1,73,0.00,CLR,,0.00,WeatherDisplay:10.37,2013-03-24 08:04:00,
2013-03-24 03:07:00,30.0,22.4,29.03,ENE,68,8.1,8.1,73,0.00,CLR,,0.00,WeatherDisplay:10.37,2013-03-24 08:07:00,
2013-03-24 03:08:00,30.0,22.4,29.03,NE,45,6.9,6.9,73,0.00,CLR,,0.00,WeatherDisplay:10.37,2013-03-24 08:08:00,
2013-03-24 03:09:00,30.0,22.4,29.03,ENE,68,8.1,8.1,73,0.00,CLR,,0.00,WeatherDisplay:10.37,2013-03-24 08:09:00,
2013-03-24 03:12:00,29.8,22.2,29.00,NE,45,5.8,5.8,73,0.00,CLR,,0.00,WeatherDisplay:10.37,2013-03-24 08:12:00,
2013-03-24 03:14:00,29.8,22.2,29.00,NE,45,8.1,8.1,73,0.00,CLR,,0.00,WeatherDisplay:10.37,2013-03-24 08:14:00,
2013-03-24 03:16:00,29.8,22.2,29.00,ENE,68,5.8,5.8,73,0.00,CLR,,0.00,WeatherDisplay:10.37,2013-03-24 08:16:00,
2013-03-24 03:17:00,29.8,22.2,29.00,NNE,22,8.1,8.1,73,0.00,CLR,,0.00,WeatherDisplay:10.37,2013-03-24 08:17:00,
2013-03-24 03:19:00,29.8,22.2,29.00,NE,45,9.2,9.2,73,0.00,CLR,,0.00,WeatherDisplay:10.37,2013-03-24 08:19:00,
2013-03-24 03:22:00,29.8,22.6,29.00,NE,45,5.8,5.8,74,0.00,CLR,,0.00,WeatherDisplay:10.37,2013-03-24 08:22:00,
2013-03-24 03:23:00,29.8,22.2,29.00,East,90,8.1,8.1,73,0.00,CLR,,0.00,WeatherDisplay:10.37,2013-03-24 08:23:00,
2013-03-24 03:24:00,29.8,22.2,29.00,NE,45,6.4,6.4,73,0.00,CLR,,0.00,WeatherDisplay:10.37,2013-03-24 08:24:00,
2013-03-24 03:28:00,29.8,22.2,29.00,NNE,22,6.9,6.9,73,0.00,CLR,,0.00,WeatherDisplay:10.37,2013-03-24 08:28:00,
2013-03-24 03:29:00,29.8,22.2,29.00,NE,45,8.1,8.1,73,0.00,CLR,,0.00,WeatherDisplay:10.37,2013-03-24 08:29:00,
2013-03-24 03:32:00,29.8,22.6,29.00,ENE,68,11.4,11.4,74,0.00,CLR,,0.00,WeatherDisplay:10.37,2013-03-24 08:32:00,
2013-03-24 03:33:00,29.8,22.6,29.00,NE,45,8.5,9.2,74,0.00,CLR,,0.00,WeatherDisplay:10.37,2013-03-24 08:33:00,
2013-03-24 03:34:00,29.7,22.4,29.00,ENE,68,11.5,11.5,74,0.00,CLR,,0.00,WeatherDisplay:10.37,2013-03-24 08:34:00,
2013-03-24 03:35:00,29.7,22.4,29.00,NE,50,7.0,0.0,74,0.00,CLR,,0.00,WeatherDisplay:10.37,2013-03-24 08:35:00,
2013-03-24 03:39:00,29.7,22.4,29.00,ENE,68,9.2,9.2,74,0.00,CLR,,0.00,WeatherDisplay:10.37,2013-03-24 08:39:00,
2013-03-24 03:40:00,29.7,22.4,29.00,ENE,68,9.2,9.2,74,0.00,CLR,,0.00,WeatherDisplay:10.37,2013-03-24 08:40:00,
2013-03-24 03:41:00,29.7,22.4,29.00,NE,45,8.1,8.1,74,0.00,CLR,,0.00,WeatherDisplay:10.37,2013-03-24 08:41:00,
2013-03-24 03:42:00,29.7,22.4,29.00,ENE,68,6.2,6.2,74,0.00,CLR,,0.00,WeatherDisplay:10.37,2013-03-24 08:42:00,
2013-03-24 03:46:00,29.7,22.7,29.00,ENE,68,11.5,11.5,75,0.00,CLR,,0.00,WeatherDisplay:10.37,2013-03-24 08:46:00,
2013-03-24 03:47:00,29.7,22.7,29.00,ENE,68,9.2,9.2,75,0.00,CLR,,0.00,WeatherDisplay:10.37,2013-03-24 08:47:00,
2013-03-24 03:50:00,29.5,22.5,29.00,ENE,58,6.0,0.0,75,0.00,CLR,,0.00,WeatherDisplay:10.37,2013-03-24 08:50:00,
2013-03-24 03:52:00,29.7,22.7,29.00,NNE,22,10.4,10.4,75,0.00,CLR,,0.00,WeatherDisplay:10.37,2013-03-24 08:52:00,
2013-03-24 03:53:00,29.5,22.5,29.00,ENE,68,6.9,6.9,75,0.00,CLR,,0.00,WeatherDisplay:10.37,2013-03-24 08:53:00,
2013-03-24 03:55:00,29.5,22.5,29.00,NE,55,5.0,0.0,75,0.00,CLR,,0.00,WeatherDisplay:10.37,2013-03-24 08:55:00,
2013-03-24 03:58:00,29.5,22.5,29.00,NNE,22,9.2,9.2,75,0.00,CLR,,0.00,WeatherDisplay:10.37,2013-03-24 08:58:00,
2013-03-24 03:59:00,29.5,22.5,29.00,ENE,68,9.2,9.2,75,0.00,CLR,,0.00,WeatherDisplay:10.37,2013-03-24 08:59:00,
2013-03-24 04:00:00,29.5,22.5,29.00,ENE,68,8.1,8.1,75,0.00,CLR,,0.00,WeatherDisplay:10.37,2013-03-24 09:00:00,
2013-03-24 04:04:00,29.5,22.5,29.00,ENE,68,8.7,8.7,75,0.00,CLR,,0.00,WeatherDisplay:10.37,2013-03-24 09:04:00,
2013-03-24 04:05:00,29.5,22.5,29.00,NE,50,8.0,0.0,75,0.00,CLR,,0.00,WeatherDisplay:10.37,2013-03-24 09:05:00,
2013-03-24 04:09:00,29.5,22.5,29.00,ENE,68,10.4,10.4,75,0.00,CLR,,0.00,WeatherDisplay:10.37,2013-03-24 09:09:00,
2013-03-24 04:10:00,29.5,22.5,29.00,ENE,68,10.4,10.4,75,0.00,CLR,,0.00,WeatherDisplay:10.37,2013-03-24 09:10:00,
2013-03-24 04:11:00,29.5,22.8,28.97,NNE,22,8.1,8.1,76,0.00,CLR,,0.00,WeatherDisplay:10.37,2013-03-24 09:11:00,
2013-03-24 04:15:00,29.5,22.8,28.97,ENE,68,8.1,8.1,76,0.00,CLR,,0.00,WeatherDisplay:10.37,2013-03-24 09:15:00,
2013-03-24 04:16:00,29.5,22.8,28.97,NE,45,10.4,10.4,76,0.00,CLR,,0.00,WeatherDisplay:10.37,2013-03-24 09:16:00,
2013-03-24 04:17:00,29.5,22.8,28.97,ENE,68,10.4,10.4,76,0.00,CLR,,0.00,WeatherDisplay:10.37,2013-03-24 09:17:00,
2013-03-24 04:20:00,29.5,22.8,28.97,NE,45,8.1,8.1,76,0.00,CLR,,0.00,WeatherDisplay:10.37,2013-03-24 09:20:00,
2013-03-24 04:25:00,29.5,22.8,28.97,ENE,68,12.7,12.7,76,0.00,CLR,,0.00,WeatherDisplay:10.37,2013-03-24 09:25:00,
2013-03-24 04:26:00,29.5,22.8,28.97,NE,45,9.2,9.2,76,0.00,CLR,,0.00,WeatherDisplay:10.37,2013-03-24 09:26:00,
2013-03-24 04:27:00,29.5,23.2,28.94,NE,45,12.7,12.7,77,0.00,CLR,,0.00,WeatherDisplay:10.37,2013-03-24 09:27:00,
2013-03-24 04:30:00,29.3,23.0,28.94,NE,51,7.0,0.0,77,0.00,CLR,,0.00,WeatherDisplay:10.37,2013-03-24 09:30:00,
2013-03-24 04:33:00,29.3,23.0,28.94,ENE,68,12.7,12.7,77,0.00,CLR,,0.00,WeatherDisplay:10.37,2013-03-24 09:33:00,
2013-03-24 04:34:00,29.3,23.0,28.94,NE,45,12.7,12.7,77,0.00,CLR,,0.00,WeatherDisplay:10.37,2013-03-24 09:34:00,
2013-03-24 04:35:00,29.3,23.0,28.94,NNE,22,12.7,12.7,77,0.00,CLR,,0.00,WeatherDisplay:10.37,2013-03-24 09:35:00,
2013-03-24 04:37:00,29.3,23.0,28.94,ENE,68,12.7,12.7,77,0.00,CLR,,0.00,WeatherDisplay:10.37,2013-03-24 09:37:00,
2013-03-24 04:39:00,29.3,23.0,28.94,ENE,68,10.4,10.4,77,0.00,CLR,,0.00,WeatherDisplay:10.37,2013-03-24 09:39:00,
2013-03-24 04:40:00,29.3,23.0,28.94,ENE,68,9.2,9.2,77,0.00,CLR,,0.00,WeatherDisplay:10.37,2013-03-24 09:40:00,
2013-03-24 04:42:00,29.3,23.0,28.94,NNE,22,9.2,9.2,77,0.00,CLR,,0.00,WeatherDisplay:10.37,2013-03-24 09:42:00,
2013-03-24 04:44:00,29.3,23.0,28.94,ENE,68,5.8,6.0,77,0.00,CLR,,0.00,WeatherDisplay:10.37,2013-03-24 09:44:00,
2013-03-24 04:45:00,29.3,23.0,28.94,ENE,59,6.0,0.0,77,0.00,CLR,,0.00,WeatherDisplay:10.37,2013-03-24 09:45:00,
2013-03-24 04:48:00,29.3,23.0,28.94,NE,45,6.9,6.9,77,0.00,CLR,,0.00,WeatherDisplay:10.37,2013-03-24 09:48:00,
2013-03-24 04:49:00,29.3,23.0,28.94,ENE,68,5.8,5.8,77,0.00,CLR,,0.00,WeatherDisplay:10.37,2013-03-24 09:49:00,
2013-03-24 04:51:00,29.3,23.0,28.94,NNE,22,10.4,10.4,77,0.00,CLR,,0.00,WeatherDisplay:10.37,2013-03-24 09:51:00,
2013-03-24 04:52:00,29.3,23.0,28.94,ENE,68,10.4,10.4,77,0.00,CLR,,0.00,WeatherDisplay:10.37,2013-03-24 09:52:00,
2013-03-24 04:55:00,29.3,23.0,28.94,ENE,68,10.4,10.4,77,0.00,CLR,,0.00,WeatherDisplay:10.37,2013-03-24 09:55:00,
2013-03-24 04:57:00,29.3,23.0,28.94,NE,45,8.1,8.1,77,0.00,CLR,,0.00,WeatherDisplay:10.37,2013-03-24 09:57:00,
2013-03-24 05:00:00,29.3,23.0,28.94,NE,53,7.0,0.0,77,0.00,CLR,,0.00,WeatherDisplay:10.37,2013-03-24 10:00:00,
2013-03-24 05:01:00,29.3,23.0,28.94,NE,45,9.2,9.2,77,0.00,CLR,,0.00,WeatherDisplay:10.37,2013-03-24 10:01:00,
2013-03-24 05:03:00,29.3,23.0,28.94,ENE,68,6.2,6.2,77,0.00,CLR,,0.00,WeatherDisplay:10.37,2013-03-24 10:03:00,
2013-03-24 05:05:00,29.3,23.0,28.94,NE,51,6.0,0.0,77,0.00,CLR,,0.00,WeatherDisplay:10.37,2013-03-24 10:05:00,
2013-03-24 05:07:00,29.1,22.8,28.94,NNE,22,5.8,5.8,77,0.00,CLR,,0.00,WeatherDisplay:10.37,2013-03-24 10:07:00,
2013-03-24 05:08:00,29.1,22.8,28.94,NNE,22,5.9,6.7,77,0.00,CLR,,0.00,WeatherDisplay:10.37,2013-03-24 10:08:00,
2013-03-24 05:11:00,29.1,22.8,28.94,NNE,22,5.8,5.8,77,0.00,CLR,,0.00,WeatherDisplay:10.37,2013-03-24 10:11:00,
2013-03-24 05:12:00,29.1,22.8,28.94,ENE,68,5.8,5.8,77,0.00,CLR,,0.00,WeatherDisplay:10.37,2013-03-24 10:12:00,
2013-03-24 05:13:00,29.1,22.8,28.94,NNE,22,5.8,5.8,77,0.00,CLR,,0.00,WeatherDisplay:10.37,2013-03-24 10:13:00,
2013-03-24 05:15:00,29.3,23.0,28.94,NNE,22,5.8,5.8,77,0.00,CLR,,0.00,WeatherDisplay:10.37,2013-03-24 10:15:00,
2013-03-24 05:18:00,29.3,23.0,28.94,NNE,22,6.9,6.9,77,0.00,CLR,,0.00,WeatherDisplay:10.37,2013-03-24 10:18:00,
2013-03-24 05:20:00,29.3,23.0,28.94,NE,45,5.8,5.8,77,0.00,CLR,,0.00,WeatherDisplay:10.37,2013-03-24 10:20:00,
2013-03-24 05:23:00,29.3,23.0,28.94,NE,45,7.6,7.6,77,0.00,CLR,,0.00,WeatherDisplay:10.37,2013-03-24 10:23:00,
2013-03-24 05:25:00,29.3,23.0,28.94,NE,45,7.1,7.1,77,0.00,CLR,,0.00,WeatherDisplay:10.37,2013-03-24 10:25:00,
2013-03-24 05:28:00,29.3,23.0,28.97,ENE,68,5.8,5.8,77,0.00,CLR,,0.00,WeatherDisplay:10.37,2013-03-24 10:28:00,
2013-03-24 05:30:00,29.3,23.0,28.97,ENE,68,5.8,5.8,77,0.00,CLR,,0.00,WeatherDisplay:10.37,2013-03-24 10:30:00,
2013-03-24 05:31:00,29.5,23.2,28.97,ENE,68,5.8,5.8,77,0.00,CLR,,0.00,WeatherDisplay:10.37,2013-03-24 10:31:00,
2013-03-24 05:33:00,29.5,22.8,28.97,NE,45,4.6,4.6,76,0.00,CLR,,0.00,WeatherDisplay:10.37,2013-03-24 10:33:00,
2013-03-24 05:36:00,29.5,22.8,28.97,ENE,68,4.6,4.6,76,0.00,CLR,,0.00,WeatherDisplay:10.37,2013-03-24 10:36:00,
2013-03-24 05:37:00,29.5,22.8,28.97,NNE,22,5.8,5.8,76,0.00,CLR,,0.00,WeatherDisplay:10.37,2013-03-24 10:37:00,
2013-03-24 05:41:00,29.5,22.8,28.94,NNE,22,5.8,5.8,76,0.00,CLR,,0.00,WeatherDisplay:10.37,2013-03-24 10:41:00,
2013-03-24 05:42:00,29.5,22.8,28.94,NE,45,5.8,5.8,76,0.00,CLR,,0.00,WeatherDisplay:10.37,2013-03-24 10:42:00,
2013-03-24 05:45:00,29.5,22.8,28.94,NE,42,5.0,0.0,76,0.00,CLR,,0.00,WeatherDisplay:10.37,2013-03-24 10:45:00,
2013-03-24 05:46:00,29.5,22.8,28.94,North,0,3.5,3.5,76,0.00,CLR,,0.00,WeatherDisplay:10.37,2013-03-24 10:46:00,
2013-03-24 05:47:00,29.5,22.8,28.94,North,0,3.5,3.5,76,0.00,CLR,,0.00,WeatherDisplay:10.37,2013-03-24 10:47:00,
2013-03-24 05:50:00,29.5,22.8,28.94,NNE,29,3.0,0.0,76,0.00,CLR,,0.00,WeatherDisplay:10.37,2013-03-24 10:50:00,
2013-03-24 05:51:00,29.5,22.8,28.94,NNE,22,3.5,3.5,76,0.00,CLR,,0.00,WeatherDisplay:10.37,2013-03-24 10:51:00,
2013-03-24 05:53:00,29.5,22.5,28.94,ENE,68,5.8,5.8,75,0.00,CLR,,0.00,WeatherDisplay:10.37,2013-03-24 10:53:00,
2013-03-24 05:55:00,29.5,22.5,28.94,NNE,32,3.0,0.0,75,0.00,CLR,,0.00,WeatherDisplay:10.37,2013-03-24 10:55:00,
2013-03-24 05:59:00,29.7,22.7,28.97,North,0,5.8,5.8,75,0.00,CLR,,0.00,WeatherDisplay:10.37,2013-03-24 10:59:00,
2013-03-24 06:00:00,29.7,22.7,28.97,NE,39,3.0,0.0,75,0.00,CLR,,0.00,WeatherDisplay:10.37,2013-03-24 11:00:00,
2013-03-24 06:01:00,29.5,22.5,28.97,NNE,22,4.6,4.6,75,0.00,CLR,,0.00,WeatherDisplay:10.37,2013-03-24 11:01:00,
2013-03-24 06:05:00,29.7,22.7,28.97,NE,42,2.0,0.0,75,0.00,CLR,,0.00,WeatherDisplay:10.37,2013-03-24 11:05:00,
2013-03-24 06:10:00,29.7,22.7,28.97,ENE,68,4.6,4.6,75,0.00,CLR,,0.00,WeatherDisplay:10.37,2013-03-24 11:10:00,
2013-03-24 06:11:00,29.7,22.7,28.94,NE,45,4.7,4.7,75,0.00,CLR,,0.00,WeatherDisplay:10.37,2013-03-24 11:11:00,
2013-03-24 06:14:00,29.7,22.7,28.94,ENE,68,5.8,5.8,75,0.00,CLR,,0.00,WeatherDisplay:10.37,2013-03-24 11:14:00,
2013-03-24 06:15:00,29.7,22.7,28.94,NE,45,5.8,5.8,75,0.00,CLR,,0.00,WeatherDisplay:10.37,2013-03-24 11:15:00,
2013-03-24 06:17:00,29.7,22.7,28.94,NNE,22,4.6,4.6,75,0.00,CLR,,0.00,WeatherDisplay:10.37,2013-03-24 11:17:00,
2013-03-24 06:20:00,29.7,22.7,28.94,NE,40,5.0,0.0,75,0.00,CLR,,0.00,WeatherDisplay:10.37,2013-03-24 11:20:00,
2013-03-24 06:22:00,29.7,22.7,28.94,ENE,68,4.6,4.6,75,0.00,CLR,,0.00,WeatherDisplay:10.37,2013-03-24 11:22:00,
2013-03-24 06:25:00,29.7,22.7,28.94,NE,42,6.0,0.0,75,0.00,CLR,,0.00,WeatherDisplay:10.37,2013-03-24 11:25:00,
2013-03-24 06:28:00,29.7,22.7,28.88,NNE,22,4.6,4.6,75,0.00,CLR,,0.00,WeatherDisplay:10.37,2013-03-24 11:28:00,
2013-03-24 06:30:00,29.7,22.7,28.88,NE,35,5.0,0.0,75,0.00,CLR,,0.00,WeatherDisplay:10.37,2013-03-24 11:30:00,
2013-03-24 06:32:00,29.7,22.7,28.88,North,0,6.9,6.9,75,0.00,CLR,,0.00,WeatherDisplay:10.37,2013-03-24 11:32:00,
2013-03-24 06:34:00,29.7,22.7,28.88,NNE,22,5.8,5.8,75,0.00,CLR,,0.00,WeatherDisplay:10.37,2013-03-24 11:34:00,
2013-03-24 06:35:00,29.7,22.7,28.88,NE,45,6.9,6.9,75,0.00,CLR,,0.00,WeatherDisplay:10.37,2013-03-24 11:35:00,
2013-03-24 06:37:00,29.8,22.9,28.88,NE,45,6.9,6.9,75,0.00,CLR,,0.00,WeatherDisplay:10.37,2013-03-24 11:37:00,
2013-03-24 06:38:00,29.8,22.9,28.88,North,0,6.9,6.9,75,0.00,CLR,,0.00,WeatherDisplay:10.37,2013-03-24 11:38:00,
2013-03-24 06:40:00,29.8,22.9,28.88,NNE,22,6.9,6.9,75,0.00,CLR,,0.00,WeatherDisplay:10.37,2013-03-24 11:40:00,
2013-03-24 06:42:00,29.8,22.9,28.91,NNE,22,5.8,5.8,75,0.00,CLR,,0.00,WeatherDisplay:10.37,2013-03-24 11:42:00,
2013-03-24 06:43:00,29.8,22.9,28.91,North,0,8.1,8.1,75,0.00,CLR,,0.00,WeatherDisplay:10.37,2013-03-24 11:43:00,
2013-03-24 06:45:00,29.8,22.9,28.91,NNE,25,6.0,0.0,75,0.00,CLR,,0.00,WeatherDisplay:10.37,2013-03-24 11:45:00,
2013-03-24 06:47:00,29.8,22.9,28.91,North,0,8.1,8.1,75,0.00,CLR,,0.00,WeatherDisplay:10.37,2013-03-24 11:47:00,
2013-03-24 06:49:00,29.8,22.9,28.91,North,0,8.1,8.1,75,0.00,CLR,,0.00,WeatherDisplay:10.37,2013-03-24 11:49:00,
2013-03-24 06:50:00,29.8,22.9,28.91,NNE,28,6.0,0.0,75,0.00,CLR,,0.00,WeatherDisplay:10.37,2013-03-24 11:50:00,
2013-03-24 06:53:00,29.8,22.9,28.91,ENE,68,8.1,8.1,75,0.00,CLR,,0.00,WeatherDisplay:10.37,2013-03-24 11:53:00,
2013-03-24 06:55:00,29.8,22.9,28.91,NNE,29,6.0,0.0,75,0.00,CLR,,0.00,WeatherDisplay:10.37,2013-03-24 11:55:00,
2013-03-24 06:58:00,29.8,22.9,28.91,NNE,22,7.1,7.8,75,0.00,CLR,,0.00,WeatherDisplay:10.37,2013-03-24 11:58:00,
2013-03-24 06:59:00,29.8,22.9,28.91,NNE,22,7.1,7.8,75,0.00,CLR,,0.00,WeatherDisplay:10.37,2013-03-24 11:59:00,
2013-03-24 07:00:00,29.8,22.9,28.91,NNE,28,8.0,0.0,75,0.00,CLR,,0.00,WeatherDisplay:10.37,2013-03-24 12:00:00,
2013-03-24 07:04:00,29.8,22.9,28.91,NNE,22,9.2,9.2,75,0.00,CLR,,0.00,WeatherDisplay:10.37,2013-03-24 12:04:00,
2013-03-24 07:05:00,29.8,22.9,28.91,NNE,21,6.0,0.0,75,0.00,CLR,,0.00,WeatherDisplay:10.37,2013-03-24 12:05:00,
2013-03-24 07:06:00,29.8,22.9,28.91,NNE,22,9.2,9.2,75,0.00,CLR,,0.00,WeatherDisplay:10.37,2013-03-24 12:06:00,
2013-03-24 07:10:00,29.8,22.9,28.91,NNE,22,9.2,9.2,75,0.00,CLR,,0.00,WeatherDisplay:10.37,2013-03-24 12:10:00,
2013-03-24 07:11:00,29.8,22.9,28.91,NNE,22,9.2,9.2,75,0.00,CLR,,0.00,WeatherDisplay:10.37,2013-03-24 12:11:00,
2013-03-24 07:12:00,29.8,22.9,28.91,NNE,22,9.2,9.2,75,0.00,CLR,,0.00,WeatherDisplay:10.37,2013-03-24 12:12:00,
2013-03-24 07:15:00,29.8,22.9,28.91,NNE,22,9.2,9.2,75,0.00,CLR,,0.00,WeatherDisplay:10.37,2013-03-24 12:15:00,
2013-03-24 07:18:00,29.8,22.9,28.91,NNE,22,9.2,9.2,75,0.00,CLR,,0.00,WeatherDisplay:10.37,2013-03-24 12:18:00,
2013-03-24 07:20:00,29.8,22.9,28.91,NNE,22,9.2,9.2,75,0.00,CLR,,0.00,WeatherDisplay:10.37,2013-03-24 12:20:00,
2013-03-24 07:23:00,29.8,22.9,28.91,NNE,22,5.9,6.9,75,0.00,CLR,,0.00,WeatherDisplay:10.37,2013-03-24 12:23:00,
2013-03-24 07:24:00,29.8,22.9,28.91,NNE,22,5.9,6.9,75,0.00,CLR,,0.00,WeatherDisplay:10.37,2013-03-24 12:24:00,
2013-03-24 07:26:00,29.8,22.9,28.91,NNE,22,5.9,6.9,75,0.00,CLR,,0.00,WeatherDisplay:10.37,2013-03-24 12:26:00,
2013-03-24 07:28:00,29.8,22.9,28.91,NNE,22,5.9,6.9,75,0.00,CLR,,0.00,WeatherDisplay:10.37,2013-03-24 12:28:00,
2013-03-24 07:29:00,29.8,22.9,28.91,NNE,22,5.9,6.9,75,0.00,CLR,,0.00,WeatherDisplay:10.37,2013-03-24 12:29:00,
2013-03-24 07:30:00,29.8,22.9,28.91,NNE,22,5.9,6.9,75,0.00,CLR,,0.00,WeatherDisplay:10.37,2013-03-24 12:30:00,
2013-03-24 07:32:00,30.0,23.1,28.91,ENE,68,5.8,6.0,75,0.00,CLR,,0.00,WeatherDisplay:10.37,2013-03-24 12:32:00,
2013-03-24 07:34:00,30.2,23.2,28.91,ENE,68,6.9,6.9,75,0.00,CLR,,0.00,WeatherDisplay:10.37,2013-03-24 12:34:00,
2013-03-24 07:35:00,30.2,23.2,28.91,ENE,68,9.2,9.2,75,0.00,CLR,,0.00,WeatherDisplay:10.37,2013-03-24 12:35:00,
2013-03-24 07:38:00,30.2,23.2,28.91,NNE,22,6.9,6.9,75,0.00,CLR,,0.00,WeatherDisplay:10.37,2013-03-24 12:38:00,
2013-03-24 07:39:00,30.2,23.2,28.91,North,0,6.0,6.0,75,0.00,CLR,,0.00,WeatherDisplay:10.37,2013-03-24 12:39:00,
2013-03-24 07:43:00,30.4,23.4,28.91,NE,45,9.2,9.2,75,0.00,CLR,,0.00,WeatherDisplay:10.37,2013-03-24 12:43:00,
2013-03-24 07:45:00,30.4,23.4,28.91,NE,35,7.0,0.0,75,0.00,CLR,,0.00,WeatherDisplay:10.37,2013-03-24 12:45:00,
2013-03-24 07:48:00,30.4,23.4,28.91,NNE,22,9.2,9.2,75,0.00,CLR,,0.00,WeatherDisplay:10.37,2013-03-24 12:48:00,
2013-03-24 07:51:00,30.4,23.1,28.91,NNW,338,8.1,8.1,74,0.00,CLR,,0.00,WeatherDisplay:10.37,2013-03-24 12:51:00,
2013-03-24 07:52:00,30.4,23.1,28.91,North,0,11.5,11.5,74,0.00,CLR,,0.00,WeatherDisplay:10.37,2013-03-24 12:52:00,
2013-03-24 07:53:00,30.4,23.1,28.91,NE,45,8.1,8.1,74,0.00,CLR,,0.00,WeatherDisplay:10.37,2013-03-24 12:53:00,
2013-03-24 07:55:00,30.4,23.1,28.91,NNE,22,8.1,8.1,74,0.00,CLR,,0.00,WeatherDisplay:10.37,2013-03-24 12:55:00,
2013-03-24 07:58:00,30.6,23.3,28.88,NNE,22,9.2,9.2,74,0.00,CLR,,0.00,WeatherDisplay:10.37,2013-03-24 12:58:00,
2013-03-24 07:59:00,30.6,23.3,28.88,ENE,68,9.2,9.2,74,0.00,CLR,,0.00,WeatherDisplay:10.37,2013-03-24 12:59:00,
2013-03-24 08:00:00,30.6,23.3,28.88,ENE,68,12.7,12.7,74,0.00,CLR,,0.00,WeatherDisplay:10.37,2013-03-24 13:00:00,
2013-03-24 08:03:00,30.6,23.3,28.88,NE,45,9.2,9.2,74,0.00,CLR,,0.00,WeatherDisplay:10.37,2013-03-24 13:03:00,
2013-03-24 08:04:00,30.6,23.3,28.88,NNE,22,9.2,9.2,74,0.00,CLR,,0.00,WeatherDisplay:10.37,2013-03-24 13:04:00,
2013-03-24 08:05:00,30.6,23.3,28.88,NNE,30,8.0,0.0,74,0.00,CLR,,0.00,WeatherDisplay:10.37,2013-03-24 13:05:00,
2013-03-24 08:08:00,30.4,23.1,28.88,North,0,12.7,12.7,74,0.00,CLR,,0.00,WeatherDisplay:10.37,2013-03-24 13:08:00,
2013-03-24 08:09:00,30.4,23.1,28.88,NE,45,10.4,10.4,74,0.00,CLR,,0.00,WeatherDisplay:10.37,2013-03-24 13:09:00,
2013-03-24 08:10:00,30.4,23.1,28.88,NNE,27,7.0,0.0,74,0.00,CLR,,0.00,WeatherDisplay:10.37,2013-03-24 13:10:00,
2013-03-24 08:11:00,30.4,23.1,28.82,NNE,22,10.4,10.4,74,0.00,CLR,,0.00,WeatherDisplay:10.37,2013-03-24 13:11:00,
2013-03-24 08:14:00,30.4,23.1,28.82,NNE,22,16.1,16.1,74,0.00,CLR,,0.00,WeatherDisplay:10.37,2013-03-24 13:14:00,
2013-03-24 08:15:00,30.4,23.1,28.82,ENE,68,11.5,11.5,74,0.00,CLR,,0.00,WeatherDisplay:10.37,2013-03-24 13:15:00,
2013-03-24 08:17:00,30.4,22.8,28.82,NNE,22,12.7,12.7,73,0.00,CLR,,0.00,WeatherDisplay:10.37,2013-03-24 13:17:00,
2013-03-24 08:18:00,30.4,22.8,28.82,NE,45,11.5,11.5,73,0.00,CLR,,0.00,WeatherDisplay:10.37,2013-03-24 13:18:00,
2013-03-24 08:22:00,30.4,23.1,28.82,ENE,68,11.5,11.5,74,0.00,CLR,,0.00,WeatherDisplay:10.37,2013-03-24 13:22:00,
2013-03-24 08:23:00,30.4,23.1,28.82,ENE,68,13.8,13.8,74,0.00,CLR,,0.00,WeatherDisplay:10.37,2013-03-24 13:23:00,
2013-03-24 08:24:00,30.4,23.1,28.82,NNE,22,13.8,13.8,74,0.00,CLR,,0.00,WeatherDisplay:10.37,2013-03-24 13:24:00,
2013-03-24 08:27:00,30.6,22.9,28.85,NNE,22,13.8,13.8,73,0.00,CLR,,0.00,WeatherDisplay:10.37,2013-03-24 13:27:00,
2013-03-24 08:29:00,30.6,22.9,28.85,NE,45,12.7,12.7,73,0.00,CLR,,0.00,WeatherDisplay:10.37,2013-03-24 13:29:00,
2013-03-24 08:30:00,30.6,22.9,28.85,NE,34,10.0,0.0,73,0.00,CLR,,0.00,WeatherDisplay:10.37,2013-03-24 13:30:00,
2013-03-24 08:33:00,30.7,23.1,28.85,NNE,22,10.4,10.4,73,0.00,CLR,,0.00,WeatherDisplay:10.37,2013-03-24 13:33:00,
2013-03-24 08:34:00,30.7,23.1,28.85,NNE,22,17.3,17.3,73,0.00,CLR,,0.00,WeatherDisplay:10.37,2013-03-24 13:34:00,
2013-03-24 08:36:00,30.9,23.3,28.85,NNE,22,11.5,11.5,73,0.00,CLR,,0.00,WeatherDisplay:10.37,2013-03-24 13:36:00,
2013-03-24 08:37:00,30.9,23.3,28.85,NNE,22,11.5,11.5,73,0.00,CLR,,0.00,WeatherDisplay:10.37,2013-03-24 13:37:00,
2013-03-24 08:39:00,31.1,23.5,28.85,North,0,10.4,10.4,73,0.00,CLR,,0.00,WeatherDisplay:10.37,2013-03-24 13:39:00,
2013-03-24 08:40:00,31.1,23.5,28.85,NNE,22,13.5,13.5,73,0.00,CLR,,0.00,WeatherDisplay:10.37,2013-03-24 13:40:00,
2013-03-24 08:41:00,31.1,23.5,28.85,NNE,22,13.8,13.8,73,0.00,CLR,,0.00,WeatherDisplay:10.37,2013-03-24 13:41:00,
2013-03-24 08:42:00,31.1,23.5,28.85,NNE,22,10.9,10.9,73,0.00,CLR,,0.00,WeatherDisplay:10.37,2013-03-24 13:42:00,
2013-03-24 08:45:00,31.3,23.3,28.85,ENE,68,8.5,8.5,72,0.00,CLR,,0.00,WeatherDisplay:10.37,2013-03-24 13:45:00,
2013-03-24 08:46:00,31.3,23.3,28.85,NNE,22,9.0,9.0,72,0.00,CLR,,0.00,WeatherDisplay:10.37,2013-03-24 13:46:00,
2013-03-24 08:47:00,31.3,23.3,28.85,NE,45,10.4,10.4,72,0.00,CLR,,0.00,WeatherDisplay:10.37,2013-03-24 13:47:00,
2013-03-24 08:51:00,31.5,23.5,28.85,ENE,68,10.7,10.7,72,0.00,CLR,,0.00,WeatherDisplay:10.37,2013-03-24 13:51:00,
2013-03-24 08:52:00,31.5,23.1,28.85,ENE,68,10.7,10.7,71,0.00,CLR,,0.00,WeatherDisplay:10.37,2013-03-24 13:52:00,
2013-03-24 08:55:00,31.6,23.3,28.85,ENE,68,12.7,12.7,71,0.00,CLR,,0.00,WeatherDisplay:10.37,2013-03-24 13:55:00,
2013-03-24 08:57:00,31.8,23.5,28.82,NE,45,8.1,8.1,71,0.00,CLR,,0.00,WeatherDisplay:10.37,2013-03-24 13:57:00,
2013-03-24 08:58:00,31.8,23.5,28.82,ENE,68,6.2,6.4,71,0.00,CLR,,0.00,WeatherDisplay:10.37,2013-03-24 13:58:00,
2013-03-24 09:02:00,32.0,23.7,28.82,NNW,338,8.1,8.1,71,0.00,CLR,,0.00,WeatherDisplay:10.37,2013-03-24 14:02:00,
2013-03-24 09:03:00,32.2,23.8,28.82,NNE,22,8.1,8.1,71,0.00,CLR,,0.00,WeatherDisplay:10.37,2013-03-24 14:03:00,
2013-03-24 09:07:00,32.2,23.5,28.82,NNE,22,11.5,11.5,70,0.00,CLR,,0.00,WeatherDisplay:10.37,2013-03-24 14:07:00,
2013-03-24 09:08:00,32.2,23.5,28.82,NE,45,5.8,5.8,70,0.00,CLR,,0.00,WeatherDisplay:10.37,2013-03-24 14:08:00,
2013-03-24 09:10:00,32.4,23.3,28.82,NE,45,10.5,10.5,69,0.00,CLR,,0.00,WeatherDisplay:10.37,2013-03-24 14:10:00,
2013-03-24 09:13:00,32.2,22.8,28.85,ENE,68,8.1,8.1,68,0.00,CLR,,0.00,WeatherDisplay:10.37,2013-03-24 14:13:00,
2013-03-24 09:15:00,32.2,22.8,28.85,NE,45,8.1,8.1,68,0.00,CLR,,0.00,WeatherDisplay:10.37,2013-03-24 14:15:00,
2013-03-24 09:16:00,32.2,22.4,28.85,NNE,22,10.4,10.4,67,0.00,CLR,,0.00,WeatherDisplay:10.37,2013-03-24 14:16:00,
2013-03-24 09:19:00,32.0,22.3,28.85,NE,45,16.8,16.8,67,0.00,CLR,,0.00,WeatherDisplay:10.37,2013-03-24 14:19:00,
2013-03-24 09:20:00,32.0,22.3,28.85,NNE,22,17.3,17.3,67,0.00,CLR,,0.00,WeatherDisplay:10.37,2013-03-24 14:20:00,
2013-03-24 09:21:00,32.0,22.3,28.85,NNE,22,10.4,10.4,67,0.00,CLR,,0.00,WeatherDisplay:10.37,2013-03-24 14:21:00,
2013-03-24 09:22:00,32.0,22.3,28.85,NE,45,11.5,11.5,67,0.00,CLR,,0.00,WeatherDisplay:10.37,2013-03-24 14:22:00,
2013-03-24 09:25:00,32.0,22.3,28.85,NNE,22,15.0,15.0,67,0.00,CLR,,0.00,WeatherDisplay:10.37,2013-03-24 14:25:00,
2013-03-24 09:27:00,32.0,22.3,28.85,NNE,22,8.1,8.1,67,0.00,CLR,,0.00,WeatherDisplay:10.37,2013-03-24 14:27:00,
2013-03-24 09:30:00,32.2,22.4,28.85,NNE,22,9.8,9.8,67,0.00,CLR,,0.00,WeatherDisplay:10.37,2013-03-24 14:30:00,
2013-03-24 09:32:00,32.0,22.3,28.85,ENE,68,11.5,11.5,67,0.00,CLR,,0.00,WeatherDisplay:10.37,2013-03-24 14:32:00,
2013-03-24 09:33:00,32.0,22.3,28.85,NNE,22,10.7,10.7,67,0.00,CLR,,0.00,WeatherDisplay:10.37,2013-03-24 14:33:00,
2013-03-24 09:35:00,32.0,22.3,28.85,NE,45,10.4,10.4,67,0.00,CLR,,0.00,WeatherDisplay:10.37,2013-03-24 14:35:00,
2013-03-24 09:36:00,32.0,22.3,28.85,NNE,22,10.4,10.4,67,0.00,CLR,,0.00,WeatherDisplay:10.37,2013-03-24 14:36:00,
2013-03-24 09:38:00,32.0,22.3,28.85,ENE,68,12.7,12.7,67,0.00,CLR,,0.00,WeatherDisplay:10.37,2013-03-24 14:38:00,
2013-03-24 09:40:00,32.0,22.3,28.85,NNE,22,11.5,11.5,67,0.00,CLR,,0.00,WeatherDisplay:10.37,2013-03-24 14:40:00,
2013-03-24 09:42:00,32.0,22.3,28.85,ENE,68,10.4,10.4,67,0.00,CLR,,0.00,WeatherDisplay:10.37,2013-03-24 14:42:00,
2013-03-24 09:44:00,31.8,22.1,28.85,North,0,12.7,12.7,67,0.00,CLR,,0.00,WeatherDisplay:10.37,2013-03-24 14:44:00,
2013-03-24 09:46:00,31.8,22.1,28.85,NNE,22,10.4,10.4,67,0.00,CLR,,0.00,WeatherDisplay:10.37,2013-03-24 14:46:00,
2013-03-24 09:48:00,32.0,22.3,28.85,North,0,8.1,8.7,67,0.00,CLR,,0.00,WeatherDisplay:10.37,2013-03-24 14:48:00,
2013-03-24 09:49:00,32.0,22.3,28.85,NNE,22,9.2,9.2,67,0.00,CLR,,0.00,WeatherDisplay:10.37,2013-03-24 14:49:00,
2013-03-24 09:52:00,31.8,22.1,28.85,ENE,68,12.7,12.7,67,0.00,CLR,,0.00,WeatherDisplay:10.37,2013-03-24 14:52:00,
2013-03-24 09:53:00,31.8,22.1,28.85,ENE,68,10.4,10.4,67,0.00,CLR,,0.00,WeatherDisplay:10.37,2013-03-24 14:53:00,
2013-03-24 09:54:00,31.8,22.1,28.85,NNE,22,8.1,8.1,67,0.00,CLR,,0.00,WeatherDisplay:10.37,2013-03-24 14:54:00,
2013-03-24 09:57:00,32.0,22.6,28.85,ENE,68,8.1,8.1,68,0.00,CLR,,0.00,WeatherDisplay:10.37,2013-03-24 14:57:00,
2013-03-24 10:00:00,32.0,22.6,28.85,NE,36,7.0,0.0,68,0.00,CLR,,0.00,WeatherDisplay:10.37,2013-03-24 15:00:00,
2013-03-24 10:02:00,31.8,22.5,28.85,NNE,22,8.1,8.1,68,0.00,CLR,,0.00,WeatherDisplay:10.37,2013-03-24 15:02:00,
2013-03-24 10:04:00,31.8,22.5,28.85,NNE,22,10.9,10.9,68,0.00,CLR,,0.00,WeatherDisplay:10.37,2013-03-24 15:04:00,
2013-03-24 10:05:00,31.8,22.5,28.85,NNE,32,8.0,0.0,68,0.00,CLR,,0.00,WeatherDisplay:10.37,2013-03-24 15:05:00,
2013-03-24 10:08:00,31.8,22.5,28.85,NNE,22,10.4,10.4,68,0.00,CLR,,0.00,WeatherDisplay:10.37,2013-03-24 15:08:00,
2013-03-24 10:09:00,31.8,22.5,28.85,NNE,22,9.8,9.8,68,0.00,CLR,,0.00,WeatherDisplay:10.37,2013-03-24 15:09:00,
2013-03-24 10:11:00,31.8,22.5,28.85,NNE,22,10.9,10.9,68,0.00,CLR,,0.00,WeatherDisplay:10.37,2013-03-24 15:11:00,
2013-03-24 10:12:00,31.8,22.5,28.85,ENE,68,11.5,11.5,68,0.00,CLR,,0.00,WeatherDisplay:10.37,2013-03-24 15:12:00,
2013-03-24 10:13:00,31.8,22.5,28.85,NE,45,8.1,8.1,68,0.00,CLR,,0.00,WeatherDisplay:10.37,2013-03-24 15:13:00,
2013-03-24 10:17:00,31.8,22.5,28.85,NNE,22,8.1,8.1,68,0.00,CLR,,0.00,WeatherDisplay:10.37,2013-03-24 15:17:00,
2013-03-24 10:19:00,32.0,22.6,28.85,North,0,5.8,5.8,68,0.00,CLR,,0.00,WeatherDisplay:10.37,2013-03-24 15:19:00,
2013-03-24 10:20:00,32.0,22.6,28.85,NE,45,6.9,6.9,68,0.00,CLR,,0.00,WeatherDisplay:10.37,2013-03-24 15:20:00,
2013-03-24 10:22:00,32.0,22.6,28.85,NNE,22,6.9,6.9,68,0.00,CLR,,0.00,WeatherDisplay:10.37,2013-03-24 15:22:00,
2013-03-24 10:24:00,32.0,22.6,28.85,NE,45,10.7,10.7,68,0.00,CLR,,0.00,WeatherDisplay:10.37,2013-03-24 15:24:00,
2013-03-24 10:25:00,32.0,22.6,28.85,NE,45,10.4,10.4,68,0.00,CLR,,0.00,WeatherDisplay:10.37,2013-03-24 15:25:00,
2013-03-24 10:27:00,32.0,22.6,28.85,North,0,9.2,9.2,68,0.00,CLR,,0.00,WeatherDisplay:10.37,2013-03-24 15:27:00,
2013-03-24 10:29:00,32.0,22.6,28.85,NNW,338,6.0,6.4,68,0.00,CLR,,0.00,WeatherDisplay:10.37,2013-03-24 15:29:00,
2013-03-24 10:30:00,32.0,22.6,28.85,NE,45,9.2,9.2,68,0.00,CLR,,0.00,WeatherDisplay:10.37,2013-03-24 15:30:00,
2013-03-24 10:32:00,32.0,22.6,28.85,North,0,8.1,8.1,68,0.00,CLR,,0.00,WeatherDisplay:10.37,2013-03-24 15:32:00,
2013-03-24 10:34:00,32.0,22.6,28.85,NNE,22,8.1,8.1,68,0.00,CLR,,0.00,WeatherDisplay:10.37,2013-03-24 15:34:00,
2013-03-24 10:38:00,32.2,22.8,28.85,NNE,22,10.4,10.4,68,0.00,CLR,,0.00,WeatherDisplay:10.37,2013-03-24 15:38:00,
2013-03-24 10:39:00,32.2,22.8,28.85,North,0,9.2,9.2,68,0.00,CLR,,0.00,WeatherDisplay:10.37,2013-03-24 15:39:00,
2013-03-24 10:44:00,32.5,23.1,28.85,NNE,22,6.9,6.9,68,0.00,CLR,,0.00,WeatherDisplay:10.37,2013-03-24 15:44:00,
2013-03-24 10:45:00,32.5,23.1,28.85,North,8,5.0,0.0,68,0.00,CLR,,0.00,WeatherDisplay:10.37,2013-03-24 15:45:00,
2013-03-24 10:47:00,32.5,23.1,28.85,NNE,22,8.1,8.1,68,0.00,CLR,,0.00,WeatherDisplay:10.37,2013-03-24 15:47:00,
2013-03-24 10:50:00,32.5,23.1,28.85,NNE,12,5.0,0.0,68,0.00,CLR,,0.00,WeatherDisplay:10.37,2013-03-24 15:50:00,
2013-03-24 10:52:00,32.5,23.1,28.85,NNE,22,5.8,5.8,68,0.00,CLR,,0.00,WeatherDisplay:10.37,2013-03-24 15:52:00,
2013-03-24 10:54:00,32.7,23.3,28.85,NNE,22,5.8,5.8,68,0.00,CLR,,0.00,WeatherDisplay:10.37,2013-03-24 15:54:00,
2013-03-24 10:55:00,32.7,23.3,28.85,NNE,12,5.0,0.0,68,0.00,CLR,,0.00,WeatherDisplay:10.37,2013-03-24 15:55:00,
2013-03-24 10:59:00,32.7,23.0,28.85,NNE,22,6.9,6.9,67,0.00,CLR,,0.00,WeatherDisplay:10.37,2013-03-24 15:59:00,
2013-03-24 11:00:00,32.7,23.0,28.85,North,7,6.0,0.0,67,0.00,CLR,,0.00,WeatherDisplay:10.37,2013-03-24 16:00:00,
2013-03-24 11:01:00,32.7,23.0,28.85,NNW,338,9.2,9.2,67,0.00,CLR,,0.00,WeatherDisplay:10.37,2013-03-24 16:01:00,
2013-03-24 11:05:00,32.7,23.0,28.85,North,3,6.0,0.0,67,0.00,CLR,,0.00,WeatherDisplay:10.37,2013-03-24 16:05:00,
2013-03-24 11:06:00,32.9,23.1,28.85,North,0,5.9,5.9,67,0.00,CLR,,0.00,WeatherDisplay:10.37,2013-03-24 16:06:00,
2013-03-24 11:10:00,32.9,23.1,28.85,North,0,8.1,8.1,67,0.00,CLR,,0.00,WeatherDisplay:10.37,2013-03-24 16:10:00,
2013-03-24 11:13:00,33.1,23.3,28.85,North,0,8.1,8.1,67,0.00,CLR,,0.00,WeatherDisplay:10.37,2013-03-24 16:13:00,
2013-03-24 11:14:00,33.1,23.3,28.85,NNE,22,8.1,8.1,67,0.00,CLR,,0.00,WeatherDisplay:10.37,2013-03-24 16:14:00,
2013-03-24 11:15:00,33.3,23.5,28.85,NE,45,7.8,7.8,67,0.00,CLR,,0.00,WeatherDisplay:10.37,2013-03-24 16:15:00,
2013-03-24 11:18:00,33.3,23.5,28.85,NNE,22,11.5,11.5,67,0.00,CLR,,0.00,WeatherDisplay:10.37,2013-03-24 16:18:00,
2013-03-24 11:19:00,33.3,23.5,28.85,North,0,8.1,8.1,67,0.00,CLR,,0.00,WeatherDisplay:10.37,2013-03-24 16:19:00,
2013-03-24 11:23:00,33.4,23.7,28.85,NNE,22,6.9,6.9,67,0.00,CLR,,0.00,WeatherDisplay:10.37,2013-03-24 16:23:00,
2013-03-24 11:24:00,33.6,23.8,28.85,North,0,5.8,5.8,67,0.00,CLR,,0.00,WeatherDisplay:10.37,2013-03-24 16:24:00,
2013-03-24 11:25:00,33.6,23.8,28.85,North,1,5.0,0.0,67,0.00,CLR,,0.00,WeatherDisplay:10.37,2013-03-24 16:25:00,
2013-03-24 11:26:00,33.6,23.8,28.85,NNW,338,5.8,5.8,67,0.00,CLR,,0.00,WeatherDisplay:10.37,2013-03-24 16:26:00,
2013-03-24 11:29:00,33.6,23.8,28.85,North,0,8.1,8.1,67,0.00,CLR,,0.00,WeatherDisplay:10.37,2013-03-24 16:29:00,
2013-03-24 11:30:00,33.7,23.9,28.85,North,3,7.0,0.0,67,0.00,CLR,,0.00,WeatherDisplay:10.37,2013-03-24 16:30:00,
2013-03-24 11:31:00,33.8,23.6,28.85,NNW,338,6.2,6.2,66,0.00,CLR,,0.00,WeatherDisplay:10.37,2013-03-24 16:31:00,
2013-03-24 11:32:00,33.8,23.6,28.85,North,0,6.4,6.4,66,0.00,CLR,,0.00,WeatherDisplay:10.37,2013-03-24 16:32:00,
2013-03-24 11:35:00,33.9,23.7,28.85,North,358,6.0,0.0,66,0.00,CLR,,0.00,WeatherDisplay:10.37,2013-03-24 16:35:00,
2013-03-24 11:36:00,34.0,23.8,28.85,NNW,338,8.1,8.1,66,0.00,CLR,,0.00,WeatherDisplay:10.37,2013-03-24 16:36:00,
2013-03-24 11:37:00,33.8,23.6,28.85,North,0,7.4,7.4,66,0.00,CLR,,0.00,WeatherDisplay:10.37,2013-03-24 16:37:00,
2013-03-24 11:39:00,33.8,23.6,28.85,North,0,8.5,8.5,66,0.00,CLR,,0.00,WeatherDisplay:10.37,2013-03-24 16:39:00,
2013-03-24 11:41:00,34.0,23.8,28.85,North,0,9.2,9.2,66,0.00,CLR,,0.00,WeatherDisplay:10.37,2013-03-24 16:41:00,
2013-03-24 11:43:00,34.0,23.4,28.85,NNW,338,6.9,6.9,65,0.00,CLR,,0.00,WeatherDisplay:10.37,2013-03-24 16:43:00,
2013-03-24 11:47:00,34.0,23.4,28.85,North,0,7.6,7.6,65,0.00,CLR,,0.00,WeatherDisplay:10.37,2013-03-24 16:47:00,
2013-03-24 11:49:00,34.2,23.6,28.85,NNW,338,5.8,5.8,65,0.00,CLR,,0.00,WeatherDisplay:10.37,2013-03-24 16:49:00,
2013-03-24 11:50:00,34.3,23.8,28.85,North,0,5.8,5.8,65,0.00,CLR,,0.00,WeatherDisplay:10.37,2013-03-24 16:50:00,
2013-03-24 11:52:00,34.3,23.8,28.85,North,0,8.1,8.1,65,0.00,CLR,,0.00,WeatherDisplay:10.37,2013-03-24 16:52:00,
2013-03-24 11:53:00,34.5,24.0,28.85,North,0,8.1,8.1,65,0.00,CLR,,0.00,WeatherDisplay:10.37,2013-03-24 16:53:00,
2013-03-24 11:56:00,34.7,24.1,28.85,NNW,338,5.8,5.8,65,0.00,CLR,,0.00,WeatherDisplay:10.37,2013-03-24 16:56:00,
2013-03-24 11:57:00,34.7,24.1,28.85,NNW,338,6.2,6.2,65,0.00,CLR,,0.00,WeatherDisplay:10.37,2013-03-24 16:57:00,
2013-03-24 11:58:00,34.7,24.1,28.85,NNE,22,7.8,7.8,65,0.00,CLR,,0.00,WeatherDisplay:10.37,2013-03-24 16:58:00,
2013-03-24 11:59:00,34.7,23.8,28.85,North,0,8.1,8.1,64,0.00,CLR,,0.00,WeatherDisplay:10.37,2013-03-24 16:59:00,
2013-03-24 12:02:00,34.9,23.9,28.85,North,0,8.1,8.1,64,0.00,CLR,,0.00,WeatherDisplay:10.37,2013-03-24 17:02:00,
2013-03-24 12:03:00,34.9,23.9,28.85,North,0,6.2,6.2,64,0.00,CLR,,0.00,WeatherDisplay:10.37,2013-03-24 17:03:00,
2013-03-24 12:04:00,34.9,23.9,28.85,NNE,22,9.2,9.2,64,0.00,CLR,,0.00,WeatherDisplay:10.37,2013-03-24 17:04:00,
2013-03-24 12:05:00,34.9,23.9,28.85,North,0,9.2,9.2,64,0.00,CLR,,0.00,WeatherDisplay:10.37,2013-03-24 17:05:00,
2013-03-24 12:08:00,34.9,23.6,28.85,NNE,22,5.9,5.9,63,0.00,CLR,,0.00,WeatherDisplay:10.37,2013-03-24 17:08:00,
2013-03-24 12:10:00,35.0,23.6,28.85,North,0,6.0,0.0,63,0.00,CLR,,0.00,WeatherDisplay:10.37,2013-03-24 17:10:00,
2013-03-24 12:11:00,34.9,23.6,28.85,North,0,8.1,8.1,63,0.00,CLR,,0.00,WeatherDisplay:10.37,2013-03-24 17:11:00,
2013-03-24 12:15:00,34.7,23.0,28.85,NNW,338,10.4,10.4,62,0.00,CLR,,0.00,WeatherDisplay:10.37,2013-03-24 17:15:00,
2013-03-24 12:17:00,35.1,23.7,28.85,North,0,7.4,7.4,63,0.00,CLR,,0.00,WeatherDisplay:10.37,2013-03-24 17:17:00,
2013-03-24 12:20:00,35.1,23.3,28.85,NNE,22,8.1,8.1,62,0.00,CLR,,0.00,WeatherDisplay:10.37,2013-03-24 17:20:00,
2013-03-24 12:22:00,35.1,23.3,28.85,North,0,8.1,8.1,62,0.00,CLR,,0.00,WeatherDisplay:10.37,2013-03-24 17:22:00,
2013-03-24 12:24:00,35.1,23.3,28.85,North,0,9.8,9.8,62,0.00,CLR,,0.00,WeatherDisplay:10.37,2013-03-24 17:24:00,
2013-03-24 12:25:00,35.2,23.5,28.85,NNE,22,9.2,9.2,62,0.00,CLR,,0.00,WeatherDisplay:10.37,2013-03-24 17:25:00,
2013-03-24 12:29:00,35.4,23.7,28.82,North,0,5.8,5.9,62,0.00,CLR,,0.00,WeatherDisplay:10.37,2013-03-24 17:29:00,
2013-03-24 12:30:00,35.6,23.9,28.82,NW,315,5.8,5.8,62,0.00,CLR,,0.00,WeatherDisplay:10.37,2013-03-24 17:30:00,
2013-03-24 12:32:00,35.4,23.7,28.82,NNE,22,11.5,11.5,62,0.00,CLR,,0.00,WeatherDisplay:10.37,2013-03-24 17:32:00,
2013-03-24 12:35:00,35.4,23.7,28.82,North,0,6.9,7.4,62,0.00,CLR,,0.00,WeatherDisplay:10.37,2013-03-24 17:35:00,
2013-03-24 12:36:00,35.4,23.3,28.82,North,0,6.9,6.9,61,0.00,CLR,,0.00,WeatherDisplay:10.37,2013-03-24 17:36:00,
2013-03-24 12:37:00,35.4,23.3,28.82,North,0,8.1,8.1,61,0.00,CLR,,0.00,WeatherDisplay:10.37,2013-03-24 17:37:00,
2013-03-24 12:40:00,35.2,23.1,28.82,NNW,338,10.5,10.5,61,0.00,CLR,,0.00,WeatherDisplay:10.37,2013-03-24 17:40:00,
2013-03-24 12:42:00,35.2,23.1,28.79,North,0,12.7,12.7,61,0.00,CLR,,0.00,WeatherDisplay:10.37,2013-03-24 17:42:00,
2013-03-24 12:43:00,35.1,23.0,28.79,NNW,338,8.1,8.1,61,0.00,CLR,,0.00,WeatherDisplay:10.37,2013-03-24 17:43:00,
2013-03-24 12:45:00,34.9,22.8,28.79,North,0,12.7,12.7,61,0.00,CLR,,0.00,WeatherDisplay:10.37,2013-03-24 17:45:00,
2013-03-24 12:47:00,34.9,23.2,28.79,NNW,338,8.1,8.1,62,0.00,CLR,,0.00,WeatherDisplay:10.37,2013-03-24 17:47:00,
2013-03-24 12:48:00,34.9,23.2,28.79,North,0,10.4,10.4,62,0.00,CLR,,0.00,WeatherDisplay:10.37,2013-03-24 17:48:00,
2013-03-24 12:49:00,35.1,23.3,28.79,North,0,10.4,10.4,62,0.00,CLR,,0.00,WeatherDisplay:10.37,2013-03-24 17:49:00,
2013-03-24 12:52:00,34.7,23.0,28.79,North,0,15.0,15.0,62,0.00,CLR,,0.00,WeatherDisplay:10.37,2013-03-24 17:52:00,
2013-03-24 12:53:00,34.9,23.2,28.79,NNE,22,10.4,10.4,62,0.00,CLR,,0.00,WeatherDisplay:10.37,2013-03-24 17:53:00,
2013-03-24 12:54:00,34.9,23.2,28.79,North,0,9.2,9.2,62,0.00,CLR,,0.00,WeatherDisplay:10.37,2013-03-24 17:54:00,
2013-03-24 12:58:00,34.5,23.2,28.79,North,0,10.4,10.4,63,0.00,CLR,,0.00,WeatherDisplay:10.37,2013-03-24 17:58:00,
2013-03-24 13:00:00,34.7,23.4,28.79,North,7,7.0,0.0,63,0.00,CLR,,0.00,WeatherDisplay:10.37,2013-03-24 18:00:00,
2013-03-24 13:05:00,34.6,23.3,28.79,North,7,8.0,0.0,63,0.00,CLR,,0.00,WeatherDisplay:10.37,2013-03-24 18:05:00,
2013-03-24 13:08:00,34.5,23.2,28.79,NNE,22,11.5,11.5,63,0.00,CLR,,0.00,WeatherDisplay:10.37,2013-03-24 18:08:00,
2013-03-24 13:09:00,34.5,23.2,28.79,North,0,10.9,10.9,63,0.00,CLR,,0.00,WeatherDisplay:10.37,2013-03-24 18:09:00,
2013-03-24 13:10:00,34.5,23.2,28.79,North,9,9.0,0.0,63,0.00,CLR,,0.00,WeatherDisplay:10.37,2013-03-24 18:10:00,
2013-03-24 13:14:00,34.5,23.6,28.79,NNE,22,13.8,13.8,64,0.00,CLR,,0.00,WeatherDisplay:10.37,2013-03-24 18:14:00,
2013-03-24 13:15:00,34.5,23.6,28.79,North,8,9.0,0.0,64,0.00,CLR,,0.00,WeatherDisplay:10.37,2013-03-24 18:15:00,
2013-03-24 13:16:00,34.5,23.6,28.79,North,0,12.7,12.7,64,0.00,CLR,,0.00,WeatherDisplay:10.37,2013-03-24 18:16:00,
2013-03-24 13:19:00,34.5,23.6,28.79,NNE,22,10.5,10.5,64,0.00,CLR,,0.00,WeatherDisplay:10.37,2013-03-24 18:19:00,
2013-03-24 13:20:00,34.5,23.6,28.79,NNE,22,11.5,11.5,64,0.00,CLR,,0.00,WeatherDisplay:10.37,2013-03-24 18:20:00,
2013-03-24 13:21:00,34.3,23.4,28.79,North,0,10.4,10.4,64,0.00,CLR,,0.00,WeatherDisplay:10.37,2013-03-24 18:21:00,
2013-03-24 13:24:00,34.5,24.0,28.79,NNW,338,8.5,8.5,65,0.00,CLR,,0.00,WeatherDisplay:10.37,2013-03-24 18:24:00,
2013-03-24 13:25:00,34.5,24.0,28.79,North,0,10.4,10.4,65,0.00,CLR,,0.00,WeatherDisplay:10.37,2013-03-24 18:25:00,
2013-03-24 13:26:00,34.7,24.1,28.79,North,0,10.4,10.4,65,0.00,CLR,,0.00,WeatherDisplay:10.37,2013-03-24 18:26:00,
2013-03-24 13:29:00,34.7,23.8,28.79,North,0,11.5,11.5,64,0.00,CLR,,0.00,WeatherDisplay:10.37,2013-03-24 18:29:00,
2013-03-24 13:30:00,34.5,23.6,28.79,North,0,9.2,9.2,64,0.00,CLR,,0.00,WeatherDisplay:10.37,2013-03-24 18:30:00,
2013-03-24 13:32:00,34.7,24.1,28.79,NNE,22,10.4,10.4,65,0.00,CLR,,0.00,WeatherDisplay:10.37,2013-03-24 18:32:00,
2013-03-24 13:34:00,34.7,23.8,28.79,North,0,9.2,9.2,64,0.00,CLR,,0.00,WeatherDisplay:10.37,2013-03-24 18:34:00,
2013-03-24 13:35:00,34.6,24.0,28.79,North,7,8.0,0.0,65,0.00,CLR,,0.00,WeatherDisplay:10.37,2013-03-24 18:35:00,
2013-03-24 13:37:00,34.7,23.8,28.79,North,0,15.0,15.0,64,0.00,CLR,,0.00,WeatherDisplay:10.37,2013-03-24 18:37:00,
2013-03-24 13:38:00,34.7,24.1,28.79,NNE,22,10.4,10.4,65,0.00,CLR,,0.00,WeatherDisplay:10.37,2013-03-24 18:38:00,
2013-03-24 13:40:00,34.5,24.0,28.79,North,3,8.0,0.0,65,0.00,CLR,,0.00,WeatherDisplay:10.37,2013-03-24 18:40:00,
2013-03-24 13:43:00,34.7,24.1,28.79,NNW,338,10.5,10.5,65,0.00,CLR,,0.00,WeatherDisplay:10.37,2013-03-24 18:43:00,
2013-03-24 13:45:00,34.9,24.3,28.79,North,357,8.0,0.0,65,0.00,CLR,,0.00,WeatherDisplay:10.37,2013-03-24 18:45:00,
2013-03-24 13:48:00,34.9,24.3,28.79,North,0,12.8,12.8,65,0.00,CLR,,0.00,WeatherDisplay:10.37,2013-03-24 18:48:00,
2013-03-24 13:50:00,34.8,24.2,28.79,North,7,9.0,0.0,65,0.00,CLR,,0.00,WeatherDisplay:10.37,2013-03-24 18:50:00,
2013-03-24 13:53:00,34.9,24.3,28.79,North,0,15.0,15.0,65,0.00,CLR,,0.00,WeatherDisplay:10.37,2013-03-24 18:53:00,
2013-03-24 13:55:00,34.5,24.0,28.79,North,2,7.0,0.0,65,0.00,CLR,,0.00,WeatherDisplay:10.37,2013-03-24 18:55:00,
2013-03-24 13:57:00,34.7,24.1,28.76,North,0,12.7,12.7,65,0.00,CLR,,0.00,WeatherDisplay:10.37,2013-03-24 18:57:00,
2013-03-24 13:58:00,34.5,24.0,28.76,NNE,22,10.5,10.5,65,0.00,CLR,,0.00,WeatherDisplay:10.37,2013-03-24 18:58:00,
2013-03-24 14:00:00,34.7,24.1,28.76,North,0,12.8,12.8,65,0.00,CLR,,0.00,WeatherDisplay:10.37,2013-03-24 19:00:00,
2013-03-24 14:01:00,34.7,24.5,28.76,NNE,22,12.7,12.7,66,0.00,CLR,,0.00,WeatherDisplay:10.37,2013-03-24 19:01:00,
2013-03-24 14:02:00,34.9,24.7,28.76,North,0,12.5,12.5,66,0.00,CLR,,0.00,WeatherDisplay:10.37,2013-03-24 19:02:00,
2013-03-24 14:03:00,34.5,24.0,28.76,North,0,12.7,12.7,65,0.00,CLR,,0.00,WeatherDisplay:10.37,2013-03-24 19:03:00,
2013-03-24 14:05:00,34.5,24.0,28.76,North,0,9.2,9.2,65,0.00,CLR,,0.00,WeatherDisplay:10.37,2013-03-24 19:05:00,
2013-03-24 14:07:00,34.9,24.7,28.76,North,0,9.2,9.2,66,0.00,CLR,,0.00,WeatherDisplay:10.37,2013-03-24 19:07:00,
2013-03-24 14:08:00,34.9,24.7,28.76,North,0,8.1,8.1,66,0.00,CLR,,0.00,WeatherDisplay:10.37,2013-03-24 19:08:00,
2013-03-24 14:09:00,34.9,24.7,28.76,North,0,10.2,10.2,66,0.00,CLR,,0.00,WeatherDisplay:10.37,2013-03-24 19:09:00,
2013-03-24 14:10:00,34.9,24.7,28.76,North,0,11.5,11.5,66,0.00,CLR,,0.00,WeatherDisplay:10.37,2013-03-24 19:10:00,
2013-03-24 14:13:00,34.9,24.7,28.76,NNE,22,10.7,10.7,66,0.00,CLR,,0.00,WeatherDisplay:10.37,2013-03-24 19:13:00,
2013-03-24 14:14:00,34.9,24.7,28.76,NNW,338,10.4,10.4,66,0.00,CLR,,0.00,WeatherDisplay:10.37,2013-03-24 19:14:00,
2013-03-24 14:17:00,34.5,24.3,28.76,NNW,338,15.0,15.0,66,0.00,CLR,,0.00,WeatherDisplay:10.37,2013-03-24 19:17:00,
2013-03-24 14:19:00,34.5,24.3,28.76,ENE,68,13.8,13.8,66,0.00,CLR,,0.00,WeatherDisplay:10.37,2013-03-24 19:19:00,
2013-03-24 14:20:00,34.7,24.9,28.76,NNE,22,10.4,10.4,67,0.00,CLR,,0.00,WeatherDisplay:10.37,2013-03-24 19:20:00,
2013-03-24 14:22:00,35.1,25.2,28.76,North,0,11.4,11.4,67,0.00,CLR,,0.00,WeatherDisplay:10.37,2013-03-24 19:22:00,
2013-03-24 14:24:00,34.9,25.0,28.76,North,0,16.1,16.1,67,0.00,CLR,,0.00,WeatherDisplay:10.37,2013-03-24 19:24:00,
2013-03-24 14:25:00,34.9,24.7,28.76,North,0,16.1,16.1,66,0.00,CLR,,0.00,WeatherDisplay:10.37,2013-03-24 19:25:00,
2013-03-24 14:26:00,34.7,24.5,28.73,North,0,12.7,12.7,66,0.00,CLR,,0.00,WeatherDisplay:10.37,2013-03-24 19:26:00,
2013-03-24 14:29:00,34.7,24.5,28.73,NNW,338,9.2,9.2,66,0.00,CLR,,0.00,WeatherDisplay:10.37,2013-03-24 19:29:00,
2013-03-24 14:31:00,34.7,24.5,28.73,NNE,22,12.7,12.7,66,0.00,CLR,,0.00,WeatherDisplay:10.37,2013-03-24 19:31:00,
2013-03-24 14:35:00,34.7,24.5,28.73,North,0,10.9,10.9,66,0.00,CLR,,0.00,WeatherDisplay:10.37,2013-03-24 19:35:00,
2013-03-24 14:37:00,34.7,24.5,28.73,NNW,338,12.7,12.7,66,0.00,CLR,,0.00,WeatherDisplay:10.37,2013-03-24 19:37:00,
2013-03-24 14:38:00,34.5,24.3,28.73,NNE,22,18.4,18.4,66,0.00,CLR,,0.00,WeatherDisplay:10.37,2013-03-24 19:38:00,
2013-03-24 14:40:00,34.7,24.5,28.73,NNE,22,14.3,14.3,66,0.00,CLR,,0.00,WeatherDisplay:10.37,2013-03-24 19:40:00,
2013-03-24 14:44:00,34.5,24.3,28.76,North,0,10.4,10.4,66,0.00,CLR,,0.00,WeatherDisplay:10.37,2013-03-24 19:44:00,
2013-03-24 14:45:00,34.5,24.3,28.76,NNE,22,10.2,10.2,66,0.00,CLR,,0.00,WeatherDisplay:10.37,2013-03-24 19:45:00,
2013-03-24 14:46:00,34.5,24.3,28.76,North,0,10.4,10.4,66,0.00,CLR,,0.00,WeatherDisplay:10.37,2013-03-24 19:46:00,
2013-03-24 14:50:00,34.5,24.7,28.76,North,0,12.7,12.7,67,0.00,CLR,,0.00,WeatherDisplay:10.37,2013-03-24 19:50:00,
2013-03-24 14:51:00,34.5,24.7,28.76,North,0,9.2,9.2,67,0.00,CLR,,0.00,WeatherDisplay:10.37,2013-03-24 19:51:00,
2013-03-24 14:52:00,34.5,24.7,28.76,NNE,22,10.4,10.4,67,0.00,CLR,,0.00,WeatherDisplay:10.37,2013-03-24 19:52:00,
2013-03-24 14:54:00,34.5,24.3,28.76,NNE,22,12.7,12.7,66,0.00,CLR,,0.00,WeatherDisplay:10.37,2013-03-24 19:54:00,
2013-03-24 14:57:00,34.3,24.2,28.73,North,0,16.1,16.1,66,0.00,CLR,,0.00,WeatherDisplay:10.37,2013-03-24 19:57:00,
2013-03-24 14:59:00,34.3,24.5,28.73,NNW,338,13.8,13.8,67,0.00,CLR,,0.00,WeatherDisplay:10.37,2013-03-24 19:59:00,
2013-03-24 15:00:00,34.3,24.5,28.73,North,9,9.0,0.0,67,0.00,CLR,,0.00,WeatherDisplay:10.37,2013-03-24 20:00:00,
2013-03-24 15:01:00,34.3,24.5,28.73,NNE,22,12.7,12.7,67,0.00,CLR,,0.00,WeatherDisplay:10.37,2013-03-24 20:01:00,
2013-03-24 15:02:00,34.2,24.7,28.73,NNE,22,12.7,12.7,68,0.00,CLR,,0.00,WeatherDisplay:10.37,2013-03-24 20:02:00,
2013-03-24 15:05:00,34.1,24.6,28.73,North,8,12.0,0.0,68,0.00,CLR,,0.00,WeatherDisplay:10.37,2013-03-24 20:05:00,
2013-03-24 15:06:00,34.0,24.5,28.73,NNE,22,16.1,16.1,68,0.00,CLR,,0.00,WeatherDisplay:10.37,2013-03-24 20:06:00,
2013-03-24 15:07:00,34.0,24.5,28.73,NNE,22,17.3,17.3,68,0.00,CLR,,0.00,WeatherDisplay:10.37,2013-03-24 20:07:00,
2013-03-24 15:09:00,34.2,24.7,28.73,NNE,22,10.4,10.4,68,0.00,CLR,,0.00,WeatherDisplay:10.37,2013-03-24 20:09:00,
2013-03-24 15:10:00,34.1,24.7,28.73,North,10,9.0,0.0,68,0.00,CLR,,0.00,WeatherDisplay:10.37,2013-03-24 20:10:00,
2013-03-24 15:12:00,34.0,24.9,28.73,NNE,22,13.8,13.8,69,0.00,CLR,,0.00,WeatherDisplay:10.37,2013-03-24 20:12:00,
2013-03-24 15:13:00,34.0,24.9,28.73,North,0,13.8,13.8,69,0.00,CLR,,0.00,WeatherDisplay:10.37,2013-03-24 20:13:00,
2013-03-24 15:15:00,34.2,25.1,28.73,North,9,9.0,0.0,69,0.00,CLR,,0.00,WeatherDisplay:10.37,2013-03-24 20:15:00,
2013-03-24 15:18:00,34.3,25.2,28.73,NNE,22,15.0,15.0,69,0.00,CLR,,0.00,WeatherDisplay:10.37,2013-03-24 20:18:00,
2013-03-24 15:19:00,34.3,24.9,28.73,NNE,22,15.0,15.0,68,0.00,CLR,,0.00,WeatherDisplay:10.37,2013-03-24 20:19:00,
2013-03-24 15:20:00,34.3,24.9,28.73,NNW,338,15.0,15.0,68,0.00,CLR,,0.00,WeatherDisplay:10.37,2013-03-24 20:20:00,
2013-03-24 15:21:00,34.2,24.7,28.73,NNE,22,11.5,11.5,68,0.00,CLR,,0.00,WeatherDisplay:10.37,2013-03-24 20:21:00,
2013-03-24 15:23:00,34.3,24.9,28.73,NNW,338,10.7,10.7,68,0.00,CLR,,0.00,WeatherDisplay:10.37,2013-03-24 20:23:00,
2013-03-24 15:25:00,34.3,24.9,28.73,NNE,22,17.3,17.3,68,0.00,CLR,,0.00,WeatherDisplay:10.37,2013-03-24 20:25:00,
2013-03-24 15:27:00,34.3,24.9,28.73,North,0,13.8,13.8,68,0.00,CLR,,0.00,WeatherDisplay:10.37,2013-03-24 20:27:00,
2013-03-24 15:29:00,34.5,25.0,28.73,NNE,22,10.4,10.4,68,0.00,CLR,,0.00,WeatherDisplay:10.37,2013-03-24 20:29:00,
2013-03-24 15:31:00,34.5,25.0,28.73,NNW,338,11.5,11.5,68,0.00,CLR,,0.00,WeatherDisplay:10.37,2013-03-24 20:31:00,
2013-03-24 15:33:00,34.3,24.5,28.73,North,0,15.0,15.0,67,0.00,CLR,,0.00,WeatherDisplay:10.37,2013-03-24 20:33:00,
2013-03-24 15:34:00,34.3,24.5,28.73,NNE,22,11.5,11.5,67,0.00,CLR,,0.00,WeatherDisplay:10.37,2013-03-24 20:34:00,
2013-03-24 15:36:00,34.5,25.0,28.73,North,0,10.4,10.4,68,0.00,CLR,,0.00,WeatherDisplay:10.37,2013-03-24 20:36:00,
2013-03-24 15:37:00,34.5,25.0,28.73,NNE,22,10.4,10.4,68,0.00,CLR,,0.00,WeatherDisplay:10.37,2013-03-24 20:37:00,
2013-03-24 15:39:00,34.3,24.5,28.73,North,0,11.5,11.5,67,0.00,CLR,,0.00,WeatherDisplay:10.37,2013-03-24 20:39:00,
2013-03-24 15:40:00,34.3,24.5,28.73,NNE,22,13.8,13.8,67,0.00,CLR,,0.00,WeatherDisplay:10.37,2013-03-24 20:40:00,
2013-03-24 15:42:00,34.3,24.5,28.76,North,0,15.0,15.0,67,0.00,CLR,,0.00,WeatherDisplay:10.37,2013-03-24 20:42:00,
2013-03-24 15:45:00,34.3,24.5,28.76,North,0,12.7,12.7,67,0.00,CLR,,0.00,WeatherDisplay:10.37,2013-03-24 20:45:00,
2013-03-24 15:47:00,34.3,24.5,28.76,North,0,12.7,12.7,67,0.00,CLR,,0.00,WeatherDisplay:10.37,2013-03-24 20:47:00,
2013-03-24 15:49:00,34.3,24.5,28.76,NNE,22,12.7,12.7,67,0.00,CLR,,0.00,WeatherDisplay:10.37,2013-03-24 20:49:00,
2013-03-24 15:50:00,34.3,24.5,28.76,NNE,22,10.4,10.4,67,0.00,CLR,,0.00,WeatherDisplay:10.37,2013-03-24 20:50:00,
2013-03-24 15:55:00,34.3,24.5,28.76,North,0,11.5,11.5,67,0.00,CLR,,0.00,WeatherDisplay:10.37,2013-03-24 20:55:00,
2013-03-24 15:56:00,34.3,24.5,28.73,NNE,22,12.7,12.7,67,0.00,CLR,,0.00,WeatherDisplay:10.37,2013-03-24 20:56:00,
2013-03-24 15:57:00,34.3,24.5,28.73,NNW,338,12.7,12.7,67,0.00,CLR,,0.00,WeatherDisplay:10.37,2013-03-24 20:57:00,
2013-03-24 16:00:00,34.3,24.5,28.73,North,0,13.0,13.0,67,0.00,CLR,,0.00,WeatherDisplay:10.37,2013-03-24 21:00:00,
2013-03-24 16:03:00,34.3,24.5,28.73,North,0,10.4,10.4,67,0.00,CLR,,0.00,WeatherDisplay:10.37,2013-03-24 21:03:00,
2013-03-24 16:05:00,34.3,24.5,28.73,NNE,22,10.4,10.4,67,0.00,CLR,,0.00,WeatherDisplay:10.37,2013-03-24 21:05:00,
2013-03-24 16:07:00,34.2,24.3,28.73,North,0,11.5,11.5,67,0.00,CLR,,0.00,WeatherDisplay:10.37,2013-03-24 21:07:00,
2013-03-24 16:10:00,34.3,24.9,28.73,North,0,9.2,9.2,68,0.00,CLR,,0.00,WeatherDisplay:10.37,2013-03-24 21:10:00,
2013-03-24 16:12:00,34.2,24.7,28.76,NNW,338,12.7,12.7,68,0.00,CLR,,0.00,WeatherDisplay:10.37,2013-03-24 21:12:00,
2013-03-24 16:15:00,34.2,24.7,28.76,North,355,8.0,0.0,68,0.00,CLR,,0.00,WeatherDisplay:10.37,2013-03-24 21:15:00,
2013-03-24 16:18:00,34.2,24.7,28.76,NNW,338,11.5,11.5,68,0.00,CLR,,0.00,WeatherDisplay:10.37,2013-03-24 21:18:00,
2013-03-24 16:20:00,34.2,25.0,28.76,North,0,12.7,12.7,69,0.00,CLR,,0.00,WeatherDisplay:10.37,2013-03-24 21:20:00,
2013-03-24 16:22:00,34.3,25.2,28.76,NNE,22,10.7,10.7,69,0.00,CLR,,0.00,WeatherDisplay:10.37,2013-03-24 21:22:00,
2013-03-24 16:23:00,34.3,25.2,28.76,NNE,22,12.8,12.8,69,0.00,CLR,,0.00,WeatherDisplay:10.37,2013-03-24 21:23:00,
2013-03-24 16:27:00,34.0,24.5,28.76,North,0,13.8,13.8,68,0.00,CLR,,0.00,WeatherDisplay:10.37,2013-03-24 21:27:00,
2013-03-24 16:28:00,34.0,24.5,28.76,NNE,22,13.8,13.8,68,0.00,CLR,,0.00,WeatherDisplay:10.37,2013-03-24 21:28:00,
2013-03-24 16:32:00,34.0,24.9,28.76,NNE,22,12.7,12.7,69,0.00,CLR,,0.00,WeatherDisplay:10.37,2013-03-24 21:32:00,
2013-03-24 16:33:00,34.0,24.9,28.76,North,0,12.7,12.7,69,0.00,CLR,,0.00,WeatherDisplay:10.37,2013-03-24 21:33:00,
2013-03-24 16:34:00,34.0,24.9,28.76,North,0,12.7,12.7,69,0.00,CLR,,0.00,WeatherDisplay:10.37,2013-03-24 21:34:00,
2013-03-24 16:35:00,34.0,24.9,28.76,North,0,14.3,14.3,69,0.00,CLR,,0.00,WeatherDisplay:10.37,2013-03-24 21:35:00,
2013-03-24 16:38:00,34.0,24.9,28.76,North,0,10.4,10.4,69,0.00,CLR,,0.00,WeatherDisplay:10.37,2013-03-24 21:38:00,
2013-03-24 16:40:00,34.0,25.2,28.76,NNE,22,9.2,9.2,70,0.00,CLR,,0.00,WeatherDisplay:10.37,2013-03-24 21:40:00,
2013-03-24 16:41:00,34.0,25.2,28.76,NNW,338,10.4,10.4,70,0.00,CLR,,0.00,WeatherDisplay:10.37,2013-03-24 21:41:00,
2013-03-24 16:43:00,34.0,25.2,28.76,North,0,9.2,9.2,70,0.00,CLR,,0.00,WeatherDisplay:10.37,2013-03-24 21:43:00,
2013-03-24 16:45:00,34.0,25.2,28.76,North,0,12.1,12.1,70,0.00,CLR,,0.00,WeatherDisplay:10.37,2013-03-24 21:45:00,
2013-03-24 16:48:00,33.6,24.9,28.76,North,0,10.4,10.4,70,0.00,CLR,,0.00,WeatherDisplay:10.37,2013-03-24 21:48:00,
2013-03-24 16:49:00,33.6,24.9,28.76,North,0,10.4,10.4,70,0.00,CLR,,0.00,WeatherDisplay:10.37,2013-03-24 21:49:00,
2013-03-24 16:51:00,33.6,25.2,28.76,North,0,11.5,11.5,71,0.00,CLR,,0.00,WeatherDisplay:10.37,2013-03-24 21:51:00,
2013-03-24 16:52:00,33.8,25.0,28.76,North,0,9.2,9.2,70,0.00,CLR,,0.00,WeatherDisplay:10.37,2013-03-24 21:52:00,
2013-03-24 16:55:00,33.6,25.2,28.76,North,0,8.0,0.0,71,0.00,CLR,,0.00,WeatherDisplay:10.37,2013-03-24 21:55:00,
2013-03-24 16:58:00,33.6,25.2,28.76,NNW,338,10.4,10.4,71,0.00,CLR,,0.00,WeatherDisplay:10.37,2013-03-24 21:58:00,
2013-03-24 16:59:00,33.4,25.0,28.76,NNW,338,12.3,12.3,71,0.00,CLR,,0.00,WeatherDisplay:10.37,2013-03-24 21:59:00,
2013-03-24 17:01:00,33.4,25.4,28.76,NNE,22,14.3,14.3,72,0.00,CLR,,0.00,WeatherDisplay:10.37,2013-03-24 22:01:00,
2013-03-24 17:03:00,33.4,25.4,28.76,NNW,338,13.8,13.8,72,0.00,CLR,,0.00,WeatherDisplay:10.37,2013-03-24 22:03:00,
2013-03-24 17:04:00,33.4,25.4,28.76,NNE,22,12.7,12.7,72,0.00,CLR,,0.00,WeatherDisplay:10.37,2013-03-24 22:04:00,
2013-03-24 17:06:00,33.3,25.2,28.76,North,0,10.4,10.4,72,0.00,CLR,,0.00,WeatherDisplay:10.37,2013-03-24 22:06:00,
2013-03-24 17:08:00,33.3,25.5,28.76,NNW,338,11.5,11.5,73,0.00,CLR,,0.00,WeatherDisplay:10.37,2013-03-24 22:08:00,
2013-03-24 17:09:00,33.3,25.5,28.76,North,0,12.5,12.5,73,0.00,CLR,,0.00,WeatherDisplay:10.37,2013-03-24 22:09:00,
2013-03-24 17:12:00,33.1,25.4,28.76,NNW,338,12.7,12.7,73,0.00,CLR,,0.00,WeatherDisplay:10.37,2013-03-24 22:12:00,
2013-03-24 17:14:00,33.1,25.4,28.76,North,0,12.7,12.7,73,0.00,CLR,,0.00,WeatherDisplay:10.37,2013-03-24 22:14:00,
2013-03-24 17:15:00,33.1,25.4,28.76,North,0,11.5,11.5,73,0.00,CLR,,0.00,WeatherDisplay:10.37,2013-03-24 22:15:00,
2013-03-24 17:17:00,32.9,25.2,28.76,NW,315,13.8,13.8,73,0.00,CLR,,0.00,WeatherDisplay:10.37,2013-03-24 22:17:00,
2013-03-24 17:20:00,32.7,25.0,28.76,North,0,11.5,11.5,73,0.00,CLR,,0.00,WeatherDisplay:10.37,2013-03-24 22:20:00,
2013-03-24 17:22:00,33.1,25.4,28.76,North,0,10.9,10.9,73,0.00,CLR,,0.00,WeatherDisplay:10.37,2013-03-24 22:22:00,
2013-03-24 17:25:00,32.9,25.5,28.76,North,0,10.4,10.4,74,0.00,CLR,,0.00,WeatherDisplay:10.37,2013-03-24 22:25:00,
2013-03-24 17:26:00,32.9,25.5,28.79,NNE,22,12.7,12.7,74,0.00,CLR,,0.00,WeatherDisplay:10.37,2013-03-24 22:26:00,
2013-03-24 17:27:00,32.9,25.5,28.79,North,0,12.7,12.7,74,0.00,CLR,,0.00,WeatherDisplay:10.37,2013-03-24 22:27:00,
2013-03-24 17:30:00,32.7,25.3,28.79,North,357,9.0,0.0,74,0.00,CLR,,0.00,WeatherDisplay:10.37,2013-03-24 22:30:00,
2013-03-24 17:31:00,32.7,25.3,28.79,NNW,338,15.0,15.0,74,0.00,CLR,,0.00,WeatherDisplay:10.37,2013-03-24 22:31:00,
2013-03-24 17:32:00,32.7,25.3,28.79,North,0,15.0,15.0,74,0.00,CLR,,0.00,WeatherDisplay:10.37,2013-03-24 22:32:00,
2013-03-24 17:37:00,32.5,25.5,28.79,NNW,338,12.7,12.7,75,0.00,CLR,,0.00,WeatherDisplay:10.37,2013-03-24 22:37:00,
2013-03-24 17:38:00,32.5,25.5,28.79,NW,315,17.3,17.3,75,0.00,CLR,,0.00,WeatherDisplay:10.37,2013-03-24 22:38:00,
2013-03-24 17:39:00,32.5,25.5,28.79,NNE,22,17.3,17.3,75,0.00,CLR,,0.00,WeatherDisplay:10.37,2013-03-24 22:39:00,
2013-03-24 17:42:00,32.4,25.3,28.79,North,0,15.0,15.0,75,0.00,CLR,,0.00,WeatherDisplay:10.37,2013-03-24 22:42:00,
2013-03-24 17:44:00,32.4,25.3,28.79,NNE,22,16.1,16.1,75,0.00,CLR,,0.00,WeatherDisplay:10.37,2013-03-24 22:44:00,
2013-03-24 17:49:00,32.4,25.3,28.79,NNE,22,10.9,11.8,75,0.00,CLR,,0.00,WeatherDisplay:10.37,2013-03-24 22:49:00,
2013-03-24 17:50:00,32.2,25.1,28.79,NNE,22,17.3,17.3,75,0.00,CLR,,0.00,WeatherDisplay:10.37,2013-03-24 22:50:00,
2013-03-24 17:55:00,32.2,25.5,28.79,NNW,338,10.4,10.4,76,0.00,CLR,,0.00,WeatherDisplay:10.37,2013-03-24 22:55:00,
2013-03-24 17:56:00,32.2,25.5,28.79,North,0,8.1,8.1,76,0.00,CLR,,0.00,WeatherDisplay:10.37,2013-03-24 22:56:00,
2013-03-24 18:00:00,32.2,25.5,28.79,North,0,12.7,12.7,76,0.00,CLR,,0.00,WeatherDisplay:10.37,2013-03-24 23:00:00,
2013-03-24 18:03:00,32.0,25.6,28.79,NNE,22,11.5,11.5,77,0.00,CLR,,0.00,WeatherDisplay:10.37,2013-03-24 23:03:00,
2013-03-24 18:05:00,32.0,25.6,28.79,North,0,11.8,11.8,77,0.00,CLR,,0.00,WeatherDisplay:10.37,2013-03-24 23:05:00,
2013-03-24 18:06:00,32.0,25.6,28.79,North,0,11.5,11.5,77,0.00,CLR,,0.00,WeatherDisplay:10.37,2013-03-24 23:06:00,
2013-03-24 18:07:00,31.8,25.4,28.79,NNW,338,12.7,12.7,77,0.00,CLR,,0.00,WeatherDisplay:10.37,2013-03-24 23:07:00,
2013-03-24 18:09:00,31.8,25.4,28.79,North,0,13.2,13.2,77,0.00,CLR,,0.00,WeatherDisplay:10.37,2013-03-24 23:09:00,
2013-03-24 18:10:00,31.8,25.4,28.79,NNW,338,10.7,11.2,77,0.00,CLR,,0.00,WeatherDisplay:10.37,2013-03-24 23:10:00,
2013-03-24 18:11:00,31.8,25.4,28.79,North,0,15.0,15.0,77,0.00,CLR,,0.00,WeatherDisplay:10.37,2013-03-24 23:11:00,
2013-03-24 18:14:00,31.6,25.3,28.79,NNE,22,15.0,15.0,77,0.00,CLR,,0.00,WeatherDisplay:10.37,2013-03-24 23:14:00,
2013-03-24 18:15:00,31.6,25.3,28.79,North,352,10.0,0.0,77,0.00,CLR,,0.00,WeatherDisplay:10.37,2013-03-24 23:15:00,
2013-03-24 18:16:00,31.6,25.3,28.79,North,0,15.0,15.0,77,0.00,CLR,,0.00,WeatherDisplay:10.37,2013-03-24 23:16:00,
2013-03-24 18:20:00,31.6,25.3,28.79,North,351,10.0,0.0,77,0.00,CLR,,0.00,WeatherDisplay:10.37,2013-03-24 23:20:00,
2013-03-24 18:21:00,31.6,25.3,28.79,North,0,17.3,17.3,77,0.00,CLR,,0.00,WeatherDisplay:10.37,2013-03-24 23:21:00,
2013-03-24 18:25:00,31.6,25.6,28.79,NNE,22,11.5,11.5,78,0.00,CLR,,0.00,WeatherDisplay:10.37,2013-03-24 23:25:00,
2013-03-24 18:26:00,31.6,25.6,28.79,North,0,11.5,11.5,78,0.00,CLR,,0.00,WeatherDisplay:10.37,2013-03-24 23:26:00,
2013-03-24 18:28:00,31.6,25.6,28.79,NNW,338,15.2,15.2,78,0.00,CLR,,0.00,WeatherDisplay:10.37,2013-03-24 23:28:00,
2013-03-24 18:29:00,31.5,25.4,28.79,North,0,15.0,15.0,78,0.00,CLR,,0.00,WeatherDisplay:10.37,2013-03-24 23:29:00,
2013-03-24 18:31:00,31.5,25.4,28.79,NNW,338,16.1,16.1,78,0.00,CLR,,0.00,WeatherDisplay:10.37,2013-03-24 23:31:00,
2013-03-24 18:34:00,31.5,25.4,28.79,NNW,338,10.4,10.4,78,0.00,CLR,,0.00,WeatherDisplay:10.37,2013-03-24 23:34:00,
2013-03-24 18:35:00,31.5,25.4,28.79,North,0,10.5,10.5,78,0.00,CLR,,0.00,WeatherDisplay:10.37,2013-03-24 23:35:00,
2013-03-24 18:36:00,31.5,25.7,28.79,NNW,338,11.5,11.5,79,0.00,CLR,,0.00,WeatherDisplay:10.37,2013-03-24 23:36:00,
2013-03-24 18:40:00,31.3,25.5,28.79,North,0,14.3,14.3,79,0.00,CLR,,0.00,WeatherDisplay:10.37,2013-03-24 23:40:00,
2013-03-24 18:41:00,31.3,25.5,28.79,North,0,13.8,13.8,79,0.00,CLR,,0.00,WeatherDisplay:10.37,2013-03-24 23:41:00,
2013-03-24 18:45:00,31.3,25.5,28.79,NNW,338,12.7,12.7,79,0.00,CLR,,0.00,WeatherDisplay:10.37,2013-03-24 23:45:00,
2013-03-24 18:46:00,31.3,25.5,28.79,NNE,22,11.5,11.5,79,0.00,CLR,,0.00,WeatherDisplay:10.37,2013-03-24 23:46:00,
2013-03-24 18:50:00,31.1,25.3,28.79,North,0,11.5,11.5,79,0.00,CLR,,0.00,WeatherDisplay:10.37,2013-03-24 23:50:00,
2013-03-24 18:51:00,31.1,25.3,28.79,NNW,338,10.4,10.4,79,0.00,CLR,,0.00,WeatherDisplay:10.37,2013-03-24 23:51:00,
2013-03-24 18:55:00,31.1,25.3,28.79,North,352,10.0,0.0,79,0.00,CLR,,0.00,WeatherDisplay:10.37,2013-03-24 23:55:00,
2013-03-24 18:56:00,31.1,25.3,28.79,NNW,338,12.7,12.7,79,0.00,CLR,,0.00,WeatherDisplay:10.37,2013-03-24 23:56:00,
2013-03-24 19:00:00,31.1,25.7,28.82,North,0,15.0,15.0,80,0.00,CLR,,0.00,WeatherDisplay:10.37,2013-03-25 00:00:00,
2013-03-24 19:01:00,31.1,25.7,28.82,NNW,338,11.5,11.5,80,0.00,CLR,,0.00,WeatherDisplay:10.37,2013-03-25 00:01:00,
2013-03-24 19:05:00,30.9,25.5,28.82,NNW,338,15.0,15.0,80,0.00,CLR,,0.00,WeatherDisplay:10.37,2013-03-25 00:05:00,
2013-03-24 19:06:00,30.9,25.5,28.82,North,0,12.1,12.1,80,0.00,CLR,,0.00,WeatherDisplay:10.37,2013-03-25 00:06:00,
2013-03-24 19:10:00,30.9,25.5,28.82,North,0,10.4,10.4,80,0.00,CLR,,0.00,WeatherDisplay:10.37,2013-03-25 00:10:00,
2013-03-24 19:11:00,30.9,25.5,28.82,North,0,10.5,10.5,80,0.00,CLR,,0.00,WeatherDisplay:10.37,2013-03-25 00:11:00,
2013-03-24 19:12:00,30.9,25.5,28.82,North,0,12.7,12.7,80,0.00,CLR,,0.00,WeatherDisplay:10.37,2013-03-25 00:12:00,
2013-03-24 19:15:00,30.7,25.3,28.82,North,0,10.4,10.5,80,0.00,CLR,,0.00,WeatherDisplay:10.37,2013-03-25 00:15:00,
2013-03-24 19:16:00,30.7,25.3,28.82,NNW,338,10.4,10.4,80,0.00,CLR,,0.00,WeatherDisplay:10.37,2013-03-25 00:16:00,
2013-03-24 19:17:00,30.7,25.3,28.82,North,0,13.8,13.8,80,0.00,CLR,,0.00,WeatherDisplay:10.37,2013-03-25 00:17:00,
2013-03-24 19:20:00,30.7,25.3,28.82,NNW,338,11.5,11.5,80,0.00,CLR,,0.00,WeatherDisplay:10.37,2013-03-25 00:20:00,
2013-03-24 19:21:00,30.7,25.6,28.82,NNW,338,11.5,11.5,81,0.00,CLR,,0.00,WeatherDisplay:10.37,2013-03-25 00:21:00,
2013-03-24 19:23:00,30.7,25.6,28.82,NNW,338,16.1,16.1,81,0.00,CLR,,0.00,WeatherDisplay:10.37,2013-03-25 00:23:00,
2013-03-24 19:25:00,30.7,25.6,28.82,NNW,338,11.5,11.5,81,0.00,CLR,,0.00,WeatherDisplay:10.37,2013-03-25 00:25:00,
2013-03-24 19:26:00,30.7,25.6,28.82,NNW,338,12.8,12.8,81,0.00,CLR,,0.00,WeatherDisplay:10.37,2013-03-25 00:26:00,
2013-03-24 19:28:00,30.7,25.6,28.82,North,0,10.4,10.4,81,0.00,CLR,,0.00,WeatherDisplay:10.37,2013-03-25 00:28:00,
2013-03-24 19:29:00,30.7,25.6,28.82,NNW,338,11.2,11.2,81,0.00,CLR,,0.00,WeatherDisplay:10.37,2013-03-25 00:29:00,
2013-03-24 19:31:00,30.6,25.4,28.82,North,0,15.0,15.0,81,0.00,CLR,,0.00,WeatherDisplay:10.37,2013-03-25 00:31:00,
2013-03-24 19:33:00,30.6,25.7,28.82,North,0,12.7,12.7,82,0.00,CLR,,0.00,WeatherDisplay:10.37,2013-03-25 00:33:00,
2013-03-24 19:34:00,30.6,25.7,28.82,NNW,338,13.7,13.7,82,0.00,CLR,,0.00,WeatherDisplay:10.37,2013-03-25 00:34:00,
2013-03-24 19:36:00,30.6,25.7,28.82,North,0,13.8,13.8,82,0.00,CLR,,0.00,WeatherDisplay:10.37,2013-03-25 00:36:00,
2013-03-24 19:39:00,30.6,25.7,28.82,NNW,338,10.4,10.5,82,0.00,CLR,,0.00,WeatherDisplay:10.37,2013-03-25 00:39:00,
2013-03-24 19:41:00,30.6,25.7,28.82,NNW,338,13.8,13.8,82,0.00,CLR,,0.00,WeatherDisplay:10.37,2013-03-25 00:41:00,
2013-03-24 19:42:00,30.6,25.7,28.85,North,0,12.7,12.7,82,0.00,CLR,,0.00,WeatherDisplay:10.37,2013-03-25 00:42:00,
2013-03-24 19:45:00,30.4,25.5,28.85,North,350,9.0,0.0,82,0.00,CLR,,0.00,WeatherDisplay:10.37,2013-03-25 00:45:00,
2013-03-24 19:46:00,30.4,25.5,28.85,NNW,338,11.5,11.5,82,0.00,CLR,,0.00,WeatherDisplay:10.37,2013-03-25 00:46:00,
2013-03-24 19:47:00,30.4,25.5,28.85,North,0,15.0,15.0,82,0.00,CLR,,0.00,WeatherDisplay:10.37,2013-03-25 00:47:00,
2013-03-24 19:48:00,30.4,25.5,28.85,NE,45,15.0,15.0,82,0.00,CLR,,0.00,WeatherDisplay:10.37,2013-03-25 00:48:00,
2013-03-24 19:51:00,30.4,25.5,28.85,North,0,15.0,15.0,82,0.00,CLR,,0.00,WeatherDisplay:10.37,2013-03-25 00:51:00,
2013-03-24 19:52:00,30.4,25.5,28.85,North,0,13.8,13.8,82,0.00,CLR,,0.00,WeatherDisplay:10.37,2013-03-25 00:52:00,
2013-03-24 19:53:00,30.4,25.5,28.85,NNW,338,13.8,13.8,82,0.00,CLR,,0.00,WeatherDisplay:10.37,2013-03-25 00:53:00,
2013-03-24 19:57:00,30.4,25.5,28.85,NNW,338,15.0,15.0,82,0.00,CLR,,0.00,WeatherDisplay:10.37,2013-03-25 00:57:00,
2013-03-24 19:59:00,30.4,25.5,28.85,NNW,338,13.8,13.8,82,0.00,CLR,,0.00,WeatherDisplay:10.37,2013-03-25 00:59:00,
2013-03-24 20:00:00,30.4,25.5,28.85,NNW,338,13.8,13.8,82,0.00,CLR,,0.00,WeatherDisplay:10.37,2013-03-25 01:00:00,
2013-03-24 20:02:00,30.4,25.5,28.85,NNW,338,15.0,15.0,82,0.00,CLR,,0.00,WeatherDisplay:10.37,2013-03-25 01:02:00,
2013-03-24 20:03:00,30.4,25.5,28.85,NNW,338,15.0,15.0,82,0.00,CLR,,0.00,WeatherDisplay:10.37,2013-03-25 01:03:00,
2013-03-24 20:05:00,30.4,25.5,28.85,North,349,9.0,0.0,82,0.00,CLR,,0.00,WeatherDisplay:10.37,2013-03-25 01:05:00,
2013-03-24 20:08:00,30.4,25.5,28.85,NNW,338,13.8,13.8,82,0.00,CLR,,0.00,WeatherDisplay:10.37,2013-03-25 01:08:00,
2013-03-24 20:10:00,30.2,25.7,28.85,North,349,10.0,0.0,83,0.00,CLR,,0.00,WeatherDisplay:10.37,2013-03-25 01:10:00,
2013-03-24 20:12:00,30.2,25.7,28.85,North,0,12.3,12.3,83,0.00,CLR,,0.00,WeatherDisplay:10.37,2013-03-25 01:12:00,
2013-03-24 20:14:00,30.2,25.7,28.85,NNW,338,10.5,10.5,83,0.00,CLR,,0.00,WeatherDisplay:10.37,2013-03-25 01:14:00,
2013-03-24 20:15:00,30.2,25.7,28.85,North,0,12.5,12.5,83,0.00,CLR,,0.00,WeatherDisplay:10.37,2013-03-25 01:15:00,
2013-03-24 20:18:00,30.2,25.7,28.85,NNW,338,10.4,10.4,83,0.00,CLR,,0.00,WeatherDisplay:10.37,2013-03-25 01:18:00,
2013-03-24 20:19:00,30.2,25.7,28.85,NNW,338,10.4,10.4,83,0.00,CLR,,0.00,WeatherDisplay:10.37,2013-03-25 01:19:00,
2013-03-24 20:24:00,30.2,25.7,28.85,North,0,12.1,12.1,83,0.00,CLR,,0.00,WeatherDisplay:10.37,2013-03-25 01:24:00,
2013-03-24 20:25:00,30.2,25.7,28.85,North,352,10.0,0.0,83,0.00,CLR,,0.00,WeatherDisplay:10.37,2013-03-25 01:25:00,
2013-03-24 20:29:00,30.2,25.7,28.85,NNW,338,10.4,10.4,83,0.00,CLR,,0.00,WeatherDisplay:10.37,2013-03-25 01:29:00,
2013-03-24 20:30:00,30.2,25.7,28.85,NW,315,13.5,13.5,83,0.00,CLR,,0.00,WeatherDisplay:10.37,2013-03-25 01:30:00,
2013-03-24 20:31:00,30.2,25.7,28.85,North,0,13.8,13.8,83,0.00,CLR,,0.00,WeatherDisplay:10.37,2013-03-25 01:31:00,
2013-03-24 20:33:00,30.2,25.7,28.85,NNW,338,12.1,12.1,83,0.00,CLR,,0.00,WeatherDisplay:10.37,2013-03-25 01:33:00,
2013-03-24 20:34:00,30.2,25.7,28.85,North,0,11.5,11.5,83,0.00,CLR,,0.00,WeatherDisplay:10.37,2013-03-25 01:34:00,
2013-03-24 20:35:00,30.2,25.7,28.85,North,0,15.0,15.0,83,0.00,CLR,,0.00,WeatherDisplay:10.37,2013-03-25 01:35:00,
2013-03-24 20:37:00,30.2,25.7,28.85,NNW,338,11.2,11.2,83,0.00,CLR,,0.00,WeatherDisplay:10.37,2013-03-25 01:37:00,
2013-03-24 20:40:00,30.2,25.7,28.85,North,350,10.0,0.0,83,0.00,CLR,,0.00,WeatherDisplay:10.37,2013-03-25 01:40:00,
2013-03-24 20:41:00,30.2,25.7,28.85,NNW,338,13.8,13.8,83,0.00,CLR,,0.00,WeatherDisplay:10.37,2013-03-25 01:41:00,
2013-03-24 20:42:00,30.2,25.7,28.85,NNW,338,15.0,15.0,83,0.00,CLR,,0.00,WeatherDisplay:10.37,2013-03-25 01:42:00,
2013-03-24 20:45:00,30.2,25.7,28.85,North,0,12.7,12.7,83,0.00,CLR,,0.00,WeatherDisplay:10.37,2013-03-25 01:45:00,
2013-03-24 20:46:00,30.2,25.7,28.85,NNW,338,12.7,12.7,83,0.00,CLR,,0.00,WeatherDisplay:10.37,2013-03-25 01:46:00,
2013-03-24 20:47:00,30.2,25.7,28.85,NNW,338,12.7,12.7,83,0.00,CLR,,0.00,WeatherDisplay:10.37,2013-03-25 01:47:00,
2013-03-24 20:51:00,30.2,25.7,28.85,NNW,338,11.5,11.5,83,0.00,CLR,,0.00,WeatherDisplay:10.37,2013-03-25 01:51:00,
2013-03-24 20:52:00,30.2,25.7,28.85,NNE,22,10.4,10.4,83,0.00,CLR,,0.00,WeatherDisplay:10.37,2013-03-25 01:52:00,
2013-03-24 20:53:00,30.2,25.7,28.85,NNW,338,10.4,10.4,83,0.00,CLR,,0.00,WeatherDisplay:10.37,2013-03-25 01:53:00,
2013-03-24 20:56:00,30.2,25.7,28.85,North,0,9.2,9.4,83,0.00,CLR,,0.00,WeatherDisplay:10.37,2013-03-25 01:56:00,
2013-03-24 20:57:00,30.2,25.7,28.85,North,0,12.5,12.5,83,0.00,CLR,,0.00,WeatherDisplay:10.37,2013-03-25 01:57:00,
2013-03-24 20:59:00,30.2,25.7,28.85,North,0,9.2,9.2,83,0.00,CLR,,0.00,WeatherDisplay:10.37,2013-03-25 01:59:00,
2013-03-24 21:00:00,30.2,25.7,28.85,NNW,338,12.7,12.7,83,0.00,CLR,,0.00,WeatherDisplay:10.37,2013-03-25 02:00:00,
2013-03-24 21:01:00,30.2,25.7,28.85,NNW,338,11.5,11.5,83,0.00,CLR,,0.00,WeatherDisplay:10.37,2013-03-25 02:01:00,
2013-03-24 21:04:00,30.2,25.9,28.85,NNW,338,12.7,12.7,84,0.00,CLR,,0.00,WeatherDisplay:10.37,2013-03-25 02:04:00,
2013-03-24 21:05:00,30.2,25.9,28.85,NNW,344,10.0,0.0,84,0.00,CLR,,0.00,WeatherDisplay:10.37,2013-03-25 02:05:00,
2013-03-24 21:06:00,30.2,25.9,28.85,NNW,338,10.4,10.4,84,0.00,CLR,,0.00,WeatherDisplay:10.37,2013-03-25 02:06:00,
2013-03-24 21:08:00,30.2,25.9,28.85,NNW,338,13.2,13.2,84,0.00,CLR,,0.00,WeatherDisplay:10.37,2013-03-25 02:08:00,
2013-03-24 21:10:00,30.2,25.7,28.85,NNW,340,13.0,0.0,83,0.00,CLR,,0.00,WeatherDisplay:10.37,2013-03-25 02:10:00,
2013-03-24 21:12:00,30.2,25.7,28.85,NNW,338,15.0,15.0,83,0.00,CLR,,0.00,WeatherDisplay:10.37,2013-03-25 02:12:00,
2013-03-24 21:14:00,30.2,25.7,28.85,NNW,338,12.7,12.7,83,0.00,CLR,,0.00,WeatherDisplay:10.37,2013-03-25 02:14:00,
2013-03-24 21:15:00,30.2,25.7,28.85,NNW,345,10.0,0.0,83,0.00,CLR,,0.00,WeatherDisplay:10.37,2013-03-25 02:15:00,
2013-03-24 21:17:00,30.2,25.7,28.85,North,0,12.7,12.7,83,0.00,CLR,,0.00,WeatherDisplay:10.37,2013-03-25 02:17:00,
2013-03-24 21:20:00,30.2,25.7,28.85,NNW,338,12.7,12.7,83,0.00,CLR,,0.00,WeatherDisplay:10.37,2013-03-25 02:20:00,
2013-03-24 21:21:00,30.2,25.9,28.85,North,0,11.5,11.5,84,0.00,CLR,,0.00,WeatherDisplay:10.37,2013-03-25 02:21:00,
2013-03-24 21:24:00,30.2,25.9,28.85,NNW,338,11.5,11.5,84,0.00,CLR,,0.00,WeatherDisplay:10.37,2013-03-25 02:24:00,
2013-03-24 21:25:00,30.2,25.9,28.85,NNW,338,11.5,11.5,84,0.00,CLR,,0.00,WeatherDisplay:10.37,2013-03-25 02:25:00,
2013-03-24 21:26:00,30.2,25.9,28.85,NNE,22,11.5,11.5,84,0.00,CLR,,0.00,WeatherDisplay:10.37,2013-03-25 02:26:00,
2013-03-24 21:27:00,30.2,25.9,28.85,NNW,338,12.7,12.7,84,0.00,CLR,,0.00,WeatherDisplay:10.37,2013-03-25 02:27:00,
2013-03-24 21:29:00,30.2,25.9,28.85,NNW,338,14.5,14.5,84,0.00,CLR,,0.00,WeatherDisplay:10.37,2013-03-25 02:29:00,
2013-03-24 21:30:00,30.2,25.9,28.85,NNW,338,15.0,15.0,84,0.00,CLR,,0.00,WeatherDisplay:10.37,2013-03-25 02:30:00,
2013-03-24 21:33:00,30.2,25.9,28.85,NNW,338,12.7,12.7,84,0.00,CLR,,0.00,WeatherDisplay:10.37,2013-03-25 02:33:00,
2013-03-24 21:34:00,30.2,25.9,28.85,NNW,338,12.7,12.7,84,0.00,CLR,,0.00,WeatherDisplay:10.37,2013-03-25 02:34:00,
2013-03-24 21:39:00,30.0,25.5,28.85,NNW,338,15.0,15.0,83,0.00,CLR,,0.00,WeatherDisplay:10.37,2013-03-25 02:39:00,
2013-03-24 21:40:00,30.0,25.5,28.85,NNW,338,13.8,13.8,83,0.00,CLR,,0.00,WeatherDisplay:10.37,2013-03-25 02:40:00,
2013-03-24 21:44:00,30.0,25.5,28.85,North,0,14.7,14.7,83,0.00,CLR,,0.00,WeatherDisplay:10.37,2013-03-25 02:44:00,
2013-03-24 21:46:00,30.0,25.5,28.85,NNW,338,15.0,15.0,83,0.00,CLR,,0.00,WeatherDisplay:10.37,2013-03-25 02:46:00,
2013-03-24 21:49:00,30.0,25.5,28.85,NNW,338,12.7,12.7,83,0.00,CLR,,0.00,WeatherDisplay:10.37,2013-03-25 02:49:00,
2013-03-24 21:51:00,30.0,25.5,28.85,NNW,338,13.8,13.8,83,0.00,CLR,,0.00,WeatherDisplay:10.37,2013-03-25 02:51:00,
2013-03-24 21:52:00,30.0,25.5,28.85,NNW,338,13.8,13.8,83,0.00,CLR,,0.00,WeatherDisplay:10.37,2013-03-25 02:52:00,
2013-03-24 21:53:00,30.0,25.5,28.85,NNW,338,16.1,16.1,83,0.00,CLR,,0.00,WeatherDisplay:10.37,2013-03-25 02:53:00,
2013-03-24 21:55:00,30.0,25.5,28.85,North,0,12.7,12.7,83,0.00,CLR,,0.00,WeatherDisplay:10.37,2013-03-25 02:55:00,
2013-03-24 21:58:00,29.8,25.3,28.85,NNW,338,12.7,12.7,83,0.00,CLR,,0.00,WeatherDisplay:10.37,2013-03-25 02:58:00,
2013-03-24 21:59:00,29.8,25.3,28.85,NNW,338,13.8,13.8,83,0.00,CLR,,0.00,WeatherDisplay:10.37,2013-03-25 02:59:00,
2013-03-24 22:00:00,29.8,25.3,28.85,North,0,13.8,13.8,83,0.00,CLR,,0.00,WeatherDisplay:10.37,2013-03-25 03:00:00,
2013-03-24 22:05:00,30.0,25.5,28.85,North,0,13.8,13.8,83,0.00,CLR,,0.00,WeatherDisplay:10.37,2013-03-25 03:05:00,
2013-03-24 22:07:00,30.0,25.8,28.85,NNW,338,9.7,9.7,84,0.00,CLR,,0.00,WeatherDisplay:10.37,2013-03-25 03:07:00,
2013-03-24 22:10:00,30.0,25.8,28.85,NNW,338,9.2,9.2,84,0.00,CLR,,0.00,WeatherDisplay:10.37,2013-03-25 03:10:00,
2013-03-24 22:12:00,30.0,25.8,28.85,NNW,338,10.4,10.4,84,0.00,CLR,,0.00,WeatherDisplay:10.37,2013-03-25 03:12:00,
2013-03-24 22:15:00,30.0,25.8,28.85,NNW,338,9.2,9.2,84,0.00,CLR,,0.00,WeatherDisplay:10.37,2013-03-25 03:15:00,
2013-03-24 22:17:00,30.0,25.8,28.85,North,0,8.1,8.1,84,0.00,CLR,,0.00,WeatherDisplay:10.37,2013-03-25 03:17:00,
2013-03-24 22:20:00,30.0,25.8,28.85,NNW,347,7.0,0.0,84,0.00,CLR,,0.00,WeatherDisplay:10.37,2013-03-25 03:20:00,
2013-03-24 22:21:00,30.0,25.8,28.85,NW,315,10.4,10.4,84,0.00,CLR,,0.00,WeatherDisplay:10.37,2013-03-25 03:21:00,
2013-03-24 22:22:00,30.0,25.8,28.85,NNW,338,8.1,8.1,84,0.00,CLR,,0.00,WeatherDisplay:10.37,2013-03-25 03:22:00,
2013-03-24 22:23:00,30.0,25.8,28.85,NNW,338,8.1,8.1,84,0.00,CLR,,0.00,WeatherDisplay:10.37,2013-03-25 03:23:00,
2013-03-24 22:26:00,30.0,25.8,28.85,NNW,338,8.1,8.1,84,0.00,CLR,,0.00,WeatherDisplay:10.37,2013-03-25 03:26:00,
2013-03-24 22:27:00,30.0,25.8,28.85,NW,315,6.9,6.9,84,0.00,CLR,,0.00,WeatherDisplay:10.37,2013-03-25 03:27:00,
2013-03-24 22:29:00,30.0,25.8,28.85,NW,315,9.2,9.2,84,0.00,CLR,,0.00,WeatherDisplay:10.37,2013-03-25 03:29:00,
2013-03-24 22:31:00,30.0,25.8,28.85,North,0,8.1,8.1,84,0.00,CLR,,0.00,WeatherDisplay:10.37,2013-03-25 03:31:00,
2013-03-24 22:32:00,30.0,25.8,28.85,North,0,6.9,6.9,84,0.00,CLR,,0.00,WeatherDisplay:10.37,2013-03-25 03:32:00,
2013-03-24 22:34:00,30.0,25.8,28.85,NNW,338,8.1,8.1,84,0.00,CLR,,0.00,WeatherDisplay:10.37,2013-03-25 03:34:00,
2013-03-24 22:35:00,30.0,25.8,28.85,NNE,22,6.9,6.9,84,0.00,CLR,,0.00,WeatherDisplay:10.37,2013-03-25 03:35:00,
2013-03-24 22:37:00,30.0,25.8,28.85,North,0,12.7,12.7,84,0.00,CLR,,0.00,WeatherDisplay:10.37,2013-03-25 03:37:00,
2013-03-24 22:39:00,30.0,25.5,28.85,NW,315,10.4,10.4,83,0.00,CLR,,0.00,WeatherDisplay:10.37,2013-03-25 03:39:00,
2013-03-24 22:42:00,30.0,25.5,28.85,NNW,338,8.1,8.1,83,0.00,CLR,,0.00,WeatherDisplay:10.37,2013-03-25 03:42:00,
2013-03-24 22:46:00,29.8,25.3,28.85,North,0,10.5,10.5,83,0.00,CLR,,0.00,WeatherDisplay:10.37,2013-03-25 03:46:00,
2013-03-24 22:47:00,29.8,25.3,28.85,NNW,338,10.7,10.7,83,0.00,CLR,,0.00,WeatherDisplay:10.37,2013-03-25 03:47:00,
2013-03-24 22:48:00,29.8,25.3,28.85,NW,315,10.4,10.4,83,0.00,CLR,,0.00,WeatherDisplay:10.37,2013-03-25 03:48:00,
2013-03-24 22:52:00,29.8,25.3,28.85,NNW,338,6.9,6.9,83,0.00,CLR,,0.00,WeatherDisplay:10.37,2013-03-25 03:52:00,
2013-03-24 22:53:00,29.8,25.3,28.85,NNW,338,10.9,10.9,83,0.00,CLR,,0.00,WeatherDisplay:10.37,2013-03-25 03:53:00,
2013-03-24 22:58:00,29.8,25.3,28.85,NNW,338,10.4,10.4,83,0.00,CLR,,0.00,WeatherDisplay:10.37,2013-03-25 03:58:00,
2013-03-24 23:00:00,29.8,25.3,28.85,NNW,338,8.0,0.0,83,0.00,CLR,,0.00,WeatherDisplay:10.37,2013-03-25 04:00:00,
2013-03-24 23:01:00,29.8,25.3,28.85,NW,315,13.8,13.8,83,0.00,CLR,,0.00,WeatherDisplay:10.37,2013-03-25 04:01:00,
2013-03-24 23:02:00,29.8,25.0,28.85,NNW,338,10.4,10.4,82,0.00,CLR,,0.00,WeatherDisplay:10.37,2013-03-25 04:02:00,
2013-03-24 23:05:00,29.8,25.0,28.85,NNW,338,8.1,8.1,82,0.00,CLR,,0.00,WeatherDisplay:10.37,2013-03-25 04:05:00,
2013-03-24 23:06:00,29.8,25.0,28.85,NNW,338,10.9,10.9,82,0.00,CLR,,0.00,WeatherDisplay:10.37,2013-03-25 04:06:00,
2013-03-24 23:08:00,29.8,25.0,28.85,North,0,11.8,11.8,82,0.00,CLR,,0.00,WeatherDisplay:10.37,2013-03-25 04:08:00,
2013-03-24 23:09:00,29.8,25.0,28.85,NNE,22,13.8,13.8,82,0.00,CLR,,0.00,WeatherDisplay:10.37,2013-03-25 04:09:00,
2013-03-24 23:11:00,29.8,25.0,28.85,NNW,338,9.8,9.8,82,0.00,CLR,,0.00,WeatherDisplay:10.37,2013-03-25 04:11:00,
2013-03-24 23:13:00,29.8,25.0,28.85,NNW,338,8.1,8.1,82,0.00,CLR,,0.00,WeatherDisplay:10.37,2013-03-25 04:13:00,
2013-03-24 23:15:00,29.8,25.0,28.85,NW,315,9.0,9.0,82,0.00,CLR,,0.00,WeatherDisplay:10.37,2013-03-25 04:15:00,
2013-03-24 23:17:00,29.8,25.0,28.85,NNE,22,10.4,10.4,82,0.00,CLR,,0.00,WeatherDisplay:10.37,2013-03-25 04:17:00,
2013-03-24 23:18:00,29.7,24.8,28.85,NNW,338,10.0,10.0,82,0.00,CLR,,0.00,WeatherDisplay:10.37,2013-03-25 04:18:00,
2013-03-24 23:20:00,29.7,24.8,28.85,NNW,336,8.0,0.0,82,0.00,CLR,,0.00,WeatherDisplay:10.37,2013-03-25 04:20:00,
2013-03-24 23:22:00,29.7,24.8,28.85,NNW,338,8.1,8.1,82,0.00,CLR,,0.00,WeatherDisplay:10.37,2013-03-25 04:22:00,
2013-03-24 23:23:00,29.7,24.8,28.85,North,0,6.9,6.9,82,0.00,CLR,,0.00,WeatherDisplay:10.37,2013-03-25 04:23:00,
2013-03-24 23:25:00,29.7,24.8,28.85,NNW,338,7.0,0.0,82,0.00,CLR,,0.00,WeatherDisplay:10.37,2013-03-25 04:25:00,
2013-03-24 23:27:00,29.7,24.8,28.85,NNW,338,9.2,9.2,82,0.00,CLR,,0.00,WeatherDisplay:10.37,2013-03-25 04:27:00,
2013-03-24 23:28:00,29.7,24.8,28.85,NNW,338,9.2,9.2,82,0.00,CLR,,0.00,WeatherDisplay:10.37,2013-03-25 04:28:00,
2013-03-24 23:30:00,29.7,24.5,28.85,NNW,338,8.1,8.1,81,0.00,CLR,,0.00,WeatherDisplay:10.37,2013-03-25 04:30:00,
2013-03-24 23:33:00,29.7,24.5,28.85,NNW,338,9.2,9.2,81,0.00,CLR,,0.00,WeatherDisplay:10.37,2013-03-25 04:33:00,
2013-03-24 23:35:00,29.7,24.5,28.85,NNW,341,8.0,0.0,81,0.00,CLR,,0.00,WeatherDisplay:10.37,2013-03-25 04:35:00,
2013-03-24 23:37:00,29.7,24.5,28.85,North,0,10.4,10.4,81,0.00,CLR,,0.00,WeatherDisplay:10.37,2013-03-25 04:37:00,
2013-03-24 23:40:00,29.7,24.5,28.85,NNW,338,10.5,10.5,81,0.00,CLR,,0.00,WeatherDisplay:10.37,2013-03-25 04:40:00,
2013-03-24 23:42:00,29.7,24.5,28.85,North,0,12.7,12.7,81,0.00,CLR,,0.00,WeatherDisplay:10.37,2013-03-25 04:42:00,
2013-03-24 23:43:00,29.7,24.5,28.85,North,0,11.5,11.5,81,0.00,CLR,,0.00,WeatherDisplay:10.37,2013-03-25 04:43:00,
2013-03-24 23:47:00,29.7,24.2,28.85,NNW,338,12.7,12.7,80,0.00,CLR,,0.00,WeatherDisplay:10.37,2013-03-25 04:47:00,
2013-03-24 23:48:00,29.7,24.2,28.85,North,0,12.7,12.7,80,0.00,CLR,,0.00,WeatherDisplay:10.37,2013-03-25 04:48:00,
2013-03-24 23:49:00,29.7,24.2,28.85,North,0,12.7,12.7,80,0.00,CLR,,0.00,WeatherDisplay:10.37,2013-03-25 04:49:00,
2013-03-24 23:52:00,29.7,24.2,28.85,NNW,338,10.4,10.4,80,0.00,CLR,,0.00,WeatherDisplay:10.37,2013-03-25 04:52:00,
2013-03-24 23:53:00,29.7,24.2,28.85,NNW,338,10.4,10.4,80,0.00,CLR,,0.00,WeatherDisplay:10.37,2013-03-25 04:53:00,
2013-03-24 23:54:00,29.7,24.2,28.85,NNW,338,10.4,10.4,80,0.00,CLR,,0.00,WeatherDisplay:10.37,2013-03-25 04:54:00,
2013-03-24 23:55:00,29.7,24.2,28.85,NNW,338,11.5,11.5,80,0.00,CLR,,0.00,WeatherDisplay:10.37,2013-03-25 04:55:00,
2013-03-24 23:57:00,29.7,24.2,28.85,NNW,338,10.4,10.4,80,0.00,CLR,,0.00,WeatherDisplay:10.37,2013-03-25 04:57:00,
2013-03-24 23:59:00,29.7,24.2,28.85,NNW,338,11.5,11.5,80,0.00,CLR,,0.00,WeatherDisplay:10.37,2013-03-25 04:59:00,